ECMWFFLT2_500_spd_003.txt.gz
Wind_Speed
26 26 27 27 27 27 26 24 22 22 22 21 21 22 22 22 20 20 21 19 19 20 21 20 18 18 18 18 19 19 20 20 20 19 20 20 19 20 21 22 23 24 24 25 26 27 28 30 30 29 27 24 22 22 23 24 26 28 29 28 26 25
26 26 27 27 28 27 26 25 23 22 22 21 21 22 22 22 21 21 21 19 20 20 21 20 19 17 16 16 16 17 18 20 20 19 18 19 19 19 20 22 23 24 24 21 24 28 30 31 32 30 28 27 24 23 22 23 26 28 29 28 27 27
26 25 26 27 27 25 25 25 23 21 21 21 21 21 21 22 21 23 24 22 21 21 21 20 18 16 14 14 15 16 18 18 18 18 17 18 19 19 20 21 21 21 23 20 21 27 31 31 32 32 30 28 26 24 21 22 24 26 28 27 27 28
25 25 26 26 26 26 27 26 23 21 21 21 22 21 20 21 22 23 24 22 20 20 20 19 17 16 15 15 15 15 17 17 17 17 17 17 17 19 20 21 21 18 19 19 19 24 29 29 31 33 32 30 28 25 22 22 24 26 27 26 27 29
24 25 26 26 26 26 28 27 24 23 23 23 22 21 20 22 23 21 20 18 17 17 16 15 16 16 14 14 13 14 16 17 18 18 19 18 18 19 20 21 22 20 18 17 18 23 28 28 30 33 32 31 28 25 23 23 24 26 26 26 28 29
24 25 25 26 26 25 26 25 23 25 24 22 22 20 20 22 22 21 20 20 19 17 15 14 16 14 13 13 12 13 14 15 17 19 20 19 19 20 20 21 21 21 20 19 18 20 26 29 32 34 33 30 28 25 24 24 24 25 26 26 28 29
24 24 25 25 26 26 26 25 24 26 25 23 22 21 22 22 22 22 22 22 21 20 18 16 15 14 14 14 13 14 15 17 18 18 18 17 18 20 21 22 22 22 22 21 19 18 21 28 33 35 34 31 28 26 24 24 24 24 25 26 28 29
23 24 25 25 26 26 26 26 25 26 26 25 24 23 24 24 24 24 23 22 21 20 19 17 18 17 16 16 16 16 15 17 19 17 17 16 17 19 21 23 24 23 23 22 21 19 19 24 31 33 33 32 30 28 26 25 24 24 24 26 28 29
23 24 25 26 26 26 26 26 25 25 26 25 25 24 26 26 24 24 24 22 21 20 19 18 20 19 17 18 18 19 16 16 18 17 16 16 17 18 20 22 24 24 24 23 22 21 18 20 26 31 33 32 31 29 28 26 25 24 24 25 27 29
23 23 25 26 25 25 25 25 25 25 25 25 25 26 27 27 26 25 23 22 21 21 20 19 20 19 18 19 21 21 19 19 19 17 17 17 17 18 19 21 24 25 24 24 24 23 20 19 22 29 33 33 32 31 30 29 27 26 25 25 26 27
23 22 24 24 23 24 23 23 23 23 24 24 25 27 28 27 27 26 24 23 22 22 20 20 21 21 20 21 22 22 21 21 20 20 19 17 17 18 19 21 23 25 25 24 24 24 23 21 22 27 33 35 35 34 32 31 30 28 27 26 26 27
21 22 22 22 22 22 21 21 21 22 24 24 25 27 28 27 27 26 24 24 23 22 21 21 22 22 22 23 23 22 22 22 22 21 19 17 18 18 18 19 21 24 25 25 25 25 25 25 24 25 31 36 37 36 35 34 32 30 29 28 27 27
21 22 22 22 22 22 21 21 21 23 24 25 26 27 28 27 27 26 25 24 24 23 23 23 24 24 24 24 24 24 24 23 22 22 19 18 18 17 15 16 19 22 24 25 26 26 26 26 24 24 28 33 37 38 37 36 34 32 31 29 28 28
20 22 22 22 22 22 22 22 22 24 24 25 26 27 28 28 28 27 25 25 25 24 24 25 26 27 25 25 24 24 24 23 23 23 21 20 19 16 15 15 17 20 23 25 26 26 26 26 24 24 26 29 34 37 38 38 37 35 33 32 30 28
21 21 22 22 23 23 24 23 24 24 25 25 26 27 28 28 28 27 26 25 25 25 25 26 27 28 26 23 23 23 24 25 24 24 23 21 19 18 18 17 17 19 22 25 26 26 26 25 25 26 26 27 31 36 38 39 39 38 36 34 32 31
22 22 22 23 24 25 25 25 25 25 26 26 27 28 28 28 28 27 27 26 25 25 26 26 27 28 27 24 23 23 25 26 25 24 22 21 20 19 20 19 20 20 22 24 26 25 25 25 26 27 27 28 31 34 38 40 41 40 39 36 35 33
23 22 22 23 24 25 26 26 26 26 26 26 27 28 28 29 29 28 27 25 25 26 26 26 26 27 27 26 24 24 25 26 25 24 22 21 21 20 21 21 22 22 23 24 24 23 25 26 27 28 29 30 32 35 38 41 41 42 41 39 37 35
24 23 22 23 24 25 26 27 27 27 27 27 27 29 29 29 30 28 27 26 26 26 25 25 26 26 26 26 25 26 26 25 25 25 23 22 21 21 22 22 22 22 22 23 24 23 24 26 27 28 29 30 33 34 38 41 41 41 42 41 39 37
24 23 23 24 25 26 26 26 27 28 28 27 27 28 29 30 30 29 28 27 26 26 25 25 26 26 26 25 25 27 25 23 24 25 24 23 23 22 23 23 22 22 23 24 25 25 25 27 27 28 29 29 31 32 34 39 40 40 42 42 41 40
25 24 24 24 25 26 27 27 27 29 29 28 27 28 29 30 30 30 29 27 26 26 26 26 26 26 26 25 25 27 26 23 23 25 25 24 23 22 22 23 23 24 24 24 25 25 25 26 27 28 28 28 30 30 30 33 38 40 41 42 42 42
26 26 26 25 25 25 26 28 28 28 29 28 27 28 29 30 31 30 29 28 27 27 26 26 27 27 27 26 26 27 26 24 24 25 25 24 23 22 22 23 24 23 23 23 24 25 26 26 27 27 27 28 30 30 29 30 34 37 39 41 43 42
26 27 27 26 25 24 25 27 28 29 29 29 28 28 28 29 30 31 30 29 28 28 28 28 28 28 28 28 27 27 27 26 25 25 25 25 24 24 24 24 24 23 22 23 25 26 27 27 27 27 29 30 30 30 30 31 34 37 36 38 41 42
26 26 27 27 26 24 23 25 26 28 28 28 29 29 29 30 30 31 31 31 30 30 30 29 29 29 29 30 29 28 27 26 26 25 26 26 25 25 26 26 26 25 25 27 28 28 28 28 28 27 29 31 31 33 34 32 35 38 38 37 39 42
26 26 27 27 27 25 23 23 25 26 26 27 28 29 30 31 31 32 33 33 32 32 31 31 31 31 31 31 31 30 28 27 27 26 27 27 26 27 27 27 28 27 28 29 30 28 28 29 29 29 30 31 31 32 33 32 34 37 40 40 40 42
29 28 27 27 28 27 24 25 25 25 26 26 27 28 29 30 31 32 33 33 33 32 32 31 31 31 31 31 31 31 30 28 28 28 28 28 28 28 28 27 28 28 29 30 30 29 28 29 30 30 31 30 29 28 27 25 27 30 35 41 42 42
32 30 29 28 29 28 27 27 27 26 27 27 27 27 28 29 30 31 31 32 32 32 31 31 31 31 31 31 32 32 31 30 29 29 29 29 29 29 29 28 28 29 29 29 30 29 29 29 29 29 30 30 28 26 24 22 22 23 26 32 39 44
34 33 30 30 30 29 28 28 28 27 27 27 27 27 27 28 29 30 30 31 31 31 31 30 30 30 30 31 31 32 32 31 31 30 30 30 30 30 29 29 28 29 29 29 29 29 29 29 28 28 29 29 27 25 24 23 22 21 21 21 27 36
36 34 32 31 32 30 28 28 29 28 28 28 28 28 27 27 28 29 29 30 30 30 30 29 29 29 29 29 30 30 31 31 32 31 31 31 31 30 30 29 28 29 29 29 28 28 29 29 28 28 29 29 27 25 23 21 19 20 21 20 18 22
37 36 34 33 33 32 29 28 28 28 28 28 28 28 27 27 28 28 29 29 29 29 28 27 27 27 27 27 27 28 29 30 30 31 30 30 30 30 30 30 28 28 29 29 27 27 28 28 27 27 28 29 28 27 25 23 23 24 24 23 21 20
38 36 35 33 33 32 31 29 27 27 26 27 28 27 27 27 27 28 28 28 27 27 26 26 25 25 25 25 25 25 26 27 28 29 29 29 29 29 29 29 28 27 28 28 27 26 27 27 27 26 26 27 28 28 28 28 29 30 29 27 26 25
38 36 32 31 31 31 30 28 27 26 25 25 26 26 26 26 26 27 26 26 25 24 24 23 23 23 23 23 23 23 23 24 25 26 27 27 28 28 28 28 26 26 26 27 26 25 25 26 26 25 25 26 27 28 29 28 29 30 30 29 27 25
37 32 27 27 27 27 27 26 25 25 24 24 25 25 25 24 24 24 24 23 23 22 21 21 21 21 21 21 21 21 22 22 23 24 25 25 26 26 26 26 25 24 24 25 25 24 24 25 25 25 24 24 25 26 27 27 27 28 27 26 26 25
32 26 24 24 24 24 24 23 23 23 23 22 23 24 23 23 22 22 21 21 20 20 19 19 19 19 20 20 19 19 19 20 21 22 23 23 24 24 24 24 23 22 22 23 23 23 24 24 24 24 24 23 23 24 25 25 25 24 24 23 23 23
26 22 22 22 22 22 22 22 22 22 21 21 22 23 22 22 21 21 20 20 19 19 19 18 18 18 18 18 18 17 17 18 19 21 21 22 22 23 23 23 22 21 21 21 22 22 22 23 23 23 23 23 22 22 23 23 23 22 22 21 21 21
22 21 21 22 22 21 21 21 21 21 21 21 21 22 23 23 22 22 21 20 20 19 19 19 18 18 18 18 17 17 16 16 17 19 20 20 21 21 22 22 21 21 20 20 20 21 21 22 22 21 21 21 21 21 21 21 22 21 21 20 20 20
22 20 21 22 21 21 22 21 21 21 21 20 20 20 22 22 23 23 22 21 21 20 19 19 19 19 19 19 18 17 16 16 17 17 18 18 19 19 20 20 20 20 19 19 19 20 20 21 21 21 20 20 20 20 20 20 20 20 19 19 18 18
23 21 21 21 21 22 23 22 21 20 20 20 20 20 21 22 22 22 21 21 20 20 20 19 19 19 19 19 19 18 18 17 17 17 18 18 18 18 18 18 18 18 18 18 18 19 19 20 20 20 20 19 19 19 19 19 19 18 18 18 17 17

ECMWFFLT2_500_spd_006.txt.gz
Wind_Speed
22 22 21 20 20 20 21 21 21 22 21 22 24 24 23 23 23 23 21 21 22 23 22 21 20 18 16 16 17 18 19 21 22 22 21 20 18 18 19 19 19 19 18 19 20 22 23 23 24 25 28 29 28 25 23 23 24 27 30 28 28 28
21 20 20 20 20 19 21 21 21 21 21 22 24 24 23 22 22 23 22 22 22 22 22 22 21 18 16 16 16 17 19 20 21 20 20 19 18 18 20 20 19 18 17 18 20 22 23 24 25 26 28 30 30 27 25 24 24 26 29 29 29 30
22 21 20 19 19 19 21 21 21 21 21 22 23 23 21 21 22 22 22 22 21 22 22 22 21 19 18 17 17 17 17 18 18 18 18 18 18 18 19 19 18 17 16 18 20 22 23 25 27 28 30 32 33 30 26 25 25 26 27 29 31 30
22 20 19 19 19 20 21 21 22 21 21 23 23 22 21 20 21 21 21 21 21 21 21 20 19 19 18 17 17 16 17 17 17 17 17 17 17 17 17 17 17 17 17 18 19 21 23 25 27 29 31 34 34 31 28 27 26 25 25 28 32 31
20 19 18 18 19 20 21 21 22 21 22 23 23 22 21 21 21 21 20 21 20 19 18 18 18 17 16 16 16 16 16 17 16 15 16 17 17 16 15 16 16 17 18 19 19 18 20 22 25 27 31 35 35 32 30 28 27 25 24 28 32 32
20 20 19 18 19 20 21 21 21 22 23 24 24 23 22 20 20 20 19 19 19 19 19 18 18 17 16 16 16 15 14 15 15 14 15 17 17 16 16 17 17 17 19 20 20 18 17 18 21 26 30 34 35 34 32 29 28 27 25 28 32 33
21 21 20 19 19 20 21 22 21 22 24 26 26 24 22 21 20 19 18 19 20 22 21 18 18 18 17 17 17 14 13 13 14 14 16 18 18 18 19 20 19 19 20 20 20 19 18 18 19 22 27 33 35 36 34 30 28 26 25 28 31 32
22 22 21 20 21 21 20 22 21 21 24 24 26 26 24 23 20 19 19 20 20 22 21 18 17 17 18 18 17 14 12 12 12 12 14 16 18 18 19 20 20 20 21 21 20 20 19 18 18 19 23 30 36 37 35 31 28 26 25 27 29 31
23 24 23 22 23 22 22 23 22 22 23 22 23 25 25 24 21 20 20 19 18 19 20 18 17 17 18 19 18 15 13 13 12 11 11 13 15 16 17 18 20 21 21 21 21 21 20 19 18 18 19 25 34 38 37 34 30 28 26 26 28 30
21 22 23 23 23 24 24 24 25 24 23 22 22 23 24 25 22 21 22 20 17 18 19 19 18 17 18 19 18 16 15 15 14 13 14 14 14 15 16 17 20 21 20 20 21 20 20 19 19 18 18 20 28 36 38 37 34 31 28 26 27 29
20 21 21 22 23 24 25 25 25 23 22 22 22 22 23 23 22 22 22 21 19 17 17 17 16 16 17 18 19 18 17 17 16 16 16 16 16 15 15 17 19 19 19 20 21 20 19 20 20 19 19 18 22 30 36 38 37 33 29 27 27 28
19 20 20 21 23 23 24 24 24 23 21 22 23 23 22 21 21 22 23 22 21 19 17 16 15 15 17 18 20 20 20 19 17 16 16 16 16 17 17 17 18 19 19 20 20 20 19 19 20 21 20 19 20 26 34 38 37 34 31 29 28 28
18 19 19 19 21 22 22 22 22 22 21 22 23 25 24 23 22 22 23 23 23 22 21 21 19 17 19 20 21 21 22 21 18 17 18 18 17 17 18 18 18 17 18 18 18 19 19 20 20 21 22 22 22 25 31 36 37 36 34 32 29 28
18 18 17 18 18 20 21 21 21 21 22 22 23 25 25 25 24 24 25 24 24 23 22 22 21 20 21 22 22 23 24 22 20 19 19 19 18 18 19 20 18 16 16 15 16 18 19 20 20 19 22 24 25 27 31 35 37 36 36 35 33 30
18 17 17 17 17 19 20 21 22 22 23 22 22 24 25 26 26 26 26 25 24 23 22 22 21 22 23 23 23 24 25 24 21 19 19 19 19 20 21 21 19 18 17 16 16 18 19 20 20 20 20 22 24 26 30 34 36 37 37 37 36 34
18 17 17 17 17 18 19 21 22 23 24 24 23 24 25 26 26 27 27 25 25 25 24 23 22 23 24 23 23 24 25 24 21 19 19 20 21 21 22 22 22 21 19 18 18 19 19 20 21 21 21 20 21 22 25 29 32 35 37 38 38 37
17 17 17 17 17 17 18 19 21 22 23 24 25 25 25 26 27 28 27 26 26 26 26 25 25 25 25 24 23 24 24 22 21 20 20 21 21 22 22 23 23 22 20 20 21 21 21 21 21 21 21 21 21 21 23 25 28 31 35 38 39 39
17 17 17 17 17 17 17 18 19 19 21 22 24 26 26 26 27 28 28 27 26 27 27 27 26 26 26 26 24 23 22 21 21 21 21 21 22 22 21 22 23 22 21 21 22 22 22 21 21 21 21 22 22 23 24 25 28 30 33 36 38 40
17 17 18 17 17 17 17 18 18 18 19 20 22 25 26 25 27 28 28 28 27 27 28 27 27 27 27 27 25 23 22 21 21 21 21 21 21 21 21 21 21 22 22 23 22 21 21 21 20 20 21 22 23 24 25 26 27 30 33 35 37 40
18 18 19 18 17 18 19 19 19 18 18 19 21 23 24 24 25 26 27 28 28 28 28 28 28 28 28 28 26 24 22 21 21 21 22 21 21 21 20 19 20 20 20 21 21 21 22 21 21 21 21 22 22 24 25 25 27 29 31 33 35 39
18 19 19 19 19 18 18 19 20 20 20 20 20 21 23 23 24 25 25 26 28 28 28 29 29 29 28 28 27 25 23 23 22 22 22 22 21 20 19 19 19 20 19 19 20 21 21 21 22 21 20 20 22 23 24 26 27 28 29 30 32 36
18 19 19 19 19 18 18 19 20 21 21 21 21 21 22 23 23 24 24 25 26 28 29 29 29 29 29 28 28 27 25 24 24 24 24 23 22 20 19 19 20 22 21 21 21 21 21 21 22 21 19 20 22 23 24 26 27 28 29 29 30 32
19 20 20 19 19 19 18 18 20 20 20 21 21 21 22 22 22 23 23 24 25 27 28 29 29 29 29 28 28 28 27 26 26 25 25 25 24 21 20 20 20 21 22 22 22 22 23 23 22 22 22 23 23 24 26 26 27 28 29 30 31 30
21 20 20 19 19 18 18 17 19 20 19 19 20 21 22 22 22 22 23 23 24 25 27 28 28 29 29 29 29 28 28 27 27 27 26 26 25 23 22 21 21 21 22 23 23 23 24 24 24 25 26 27 25 26 27 27 27 28 28 30 32 31
23 22 20 19 18 17 17 17 18 20 20 20 20 20 21 22 23 23 23 23 24 25 26 26 27 28 29 29 28 28 28 27 27 27 27 26 25 24 23 23 22 22 22 23 24 24 25 25 26 27 27 28 27 26 28 28 28 28 27 26 28 28
24 24 21 20 18 17 16 16 18 20 20 20 21 21 21 22 23 23 24 24 24 24 25 26 27 27 28 28 28 28 28 28 28 27 27 26 26 25 24 24 23 23 23 23 24 25 25 26 27 27 27 27 26 25 26 26 26 26 25 24 23 22
24 25 24 22 19 18 17 17 18 19 20 21 21 22 22 22 23 23 24 24 24 24 24 25 26 27 28 28 28 28 28 28 28 27 26 26 26 26 25 24 24 24 24 23 24 25 25 26 26 27 27 27 26 25 24 25 24 24 23 23 23 21
24 26 26 24 21 19 19 20 20 20 20 21 21 22 22 22 23 24 24 23 23 23 24 24 25 25 26 27 28 28 28 28 27 27 26 25 25 25 25 24 24 24 24 24 25 25 25 26 26 26 26 26 26 25 24 23 23 23 21 21 21 20
25 27 28 26 23 21 22 24 23 21 21 21 22 22 22 22 23 23 23 23 23 23 23 24 24 24 25 25 26 26 27 26 26 26 25 24 24 24 24 23 23 23 23 23 23 24 24 25 25 25 25 25 24 24 23 22 22 23 22 21 20 19
27 28 29 28 25 23 24 27 26 24 22 22 22 22 22 22 22 22 22 22 22 23 23 23 23 23 23 24 24 24 25 25 25 24 24 23 21 21 21 21 21 21 21 21 21 22 23 24 24 24 24 24 23 23 22 21 22 23 23 23 23 23
30 29 29 29 27 25 26 28 28 26 22 20 21 21 21 21 21 20 20 21 21 22 23 23 22 22 22 22 22 22 23 23 23 22 22 21 20 19 18 18 18 19 19 19 20 20 21 22 22 23 23 23 22 22 21 21 21 22 23 24 25 25
32 30 29 29 28 26 27 28 27 25 21 18 18 19 19 19 19 19 19 19 20 20 21 22 21 21 21 21 21 21 21 21 21 21 20 19 18 17 16 16 16 16 17 17 17 18 19 20 20 21 22 22 21 21 20 20 20 21 22 22 23 24
33 31 29 30 29 27 27 27 24 23 20 17 16 15 16 17 17 18 18 18 19 19 20 20 20 20 19 19 20 20 20 20 20 20 19 19 18 16 15 15 15 15 15 15 15 16 17 18 18 19 20 21 21 20 19 19 19 20 20 20 20 21
34 32 31 30 30 27 25 23 21 20 18 15 14 13 14 15 16 17 18 18 18 19 19 19 19 19 18 17 18 18 19 19 19 19 19 18 18 17 16 15 15 15 15 14 14 14 15 16 16 17 18 19 19 18 18 17 18 19 19 19 18 18
37 32 33 32 29 26 23 21 19 18 16 14 13 13 14 15 16 17 18 18 19 19 20 20 20 19 18 18 17 17 17 18 18 18 17 17 17 17 17 16 16 16 15 14 14 14 14 15 15 15 16 17 17 17 16 16 17 17 17 17 17 16
39 32 32 33 28 24 22 20 17 16 14 13 13 14 15 15 16 16 17 18 19 19 20 20 20 20 19 19 18 18 17 17 17 17 17 16 16 16 16 16 16 16 15 15 14 13 13 14 15 15 16 16 15 15 15 14 14 15 16 16 16 15
36 30 30 31 27 23 21 19 18 16 14 13 14 15 16 16 17 17 18 19 20 20 20 20 20 20 19 19 19 18 18 18 18 18 17 17 16 16 16 16 15 15 15 14 14 13 13 13 14 15 16 16 15 15 15 14 13 13 14 15 15 15

ECMWFFLT2_500_spd_009.txt.gz
Wind_Speed
20 19 19 19 20 20 20 20 20 19 19 19 19 20 21 21 22 22 23 22 22 22 22 22 22 21 20 18 17 17 18 18 19 19 19 19 19 18 17 16 15 14 14 15 16 18 19 21 22 22 22 22 23 24 25 23 21 22 26 29 29 28
18 18 19 20 20 20 20 20 19 19 19 19 20 20 20 20 21 22 22 21 21 21 21 21 22 22 20 19 17 17 17 18 18 19 19 20 20 19 18 17 15 13 14 15 16 17 19 20 22 23 23 22 23 24 25 25 22 22 25 29 30 29
15 17 19 20 20 19 18 18 19 19 19 19 19 20 20 20 21 21 21 21 20 21 21 20 21 21 20 20 18 18 18 18 19 19 19 20 19 17 16 16 14 13 14 15 16 17 18 20 21 23 23 23 23 25 26 25 24 23 24 28 30 30
16 17 17 17 16 16 17 18 18 19 19 19 19 19 20 20 20 21 22 21 21 22 21 21 20 20 19 20 20 19 18 18 19 19 19 18 16 15 15 14 13 13 14 15 16 17 17 19 22 23 24 25 25 26 26 26 25 24 24 27 30 31
16 15 15 14 14 15 16 17 18 18 19 19 19 20 20 20 21 21 21 21 21 21 21 20 19 19 19 20 20 19 17 17 18 18 18 17 16 15 14 13 12 13 13 14 15 15 16 18 21 23 26 27 27 28 28 27 27 26 25 27 30 32
13 12 13 14 14 15 15 16 17 18 19 19 19 20 21 22 22 21 20 21 21 20 19 18 18 17 18 18 18 17 16 16 17 16 16 16 16 16 14 13 13 13 13 14 14 15 17 18 19 20 23 26 28 29 29 29 28 27 26 27 30 32
12 12 12 13 14 15 15 16 17 18 20 19 19 20 21 21 21 21 20 21 21 20 18 17 16 15 15 15 16 15 15 14 15 14 13 14 15 15 14 14 14 14 14 15 16 16 18 19 18 17 18 21 24 26 28 28 29 28 28 29 29 31
12 12 12 13 14 15 16 17 18 19 19 19 19 20 21 20 19 20 21 21 21 20 18 16 15 15 15 15 15 14 14 13 13 12 12 12 14 15 16 16 16 16 16 17 18 18 19 19 19 18 18 19 20 22 24 26 29 30 30 31 30 30
12 12 12 13 15 16 17 17 18 19 19 19 19 19 19 19 18 19 20 21 20 19 18 17 16 16 16 17 16 14 13 12 11 12 12 12 12 14 15 15 16 17 17 18 19 19 20 20 20 19 19 19 18 19 21 23 28 30 32 34 33 30
12 13 12 13 14 15 16 17 18 18 18 18 19 19 18 18 18 18 20 21 19 18 17 17 17 17 16 15 15 14 13 12 11 12 12 12 12 12 12 13 15 16 18 19 19 19 20 21 21 20 20 19 18 19 18 20 26 31 33 36 35 30
12 14 14 14 14 15 16 17 17 18 17 17 17 17 16 17 17 17 19 19 16 16 16 15 16 17 14 13 14 14 13 13 12 11 11 12 14 15 15 15 15 16 18 19 19 19 20 21 21 21 20 20 20 19 18 18 22 29 33 36 35 31
13 15 16 15 15 15 15 16 17 18 18 18 17 16 16 16 16 16 17 17 15 16 17 16 16 15 14 13 14 14 13 12 11 10 11 12 14 16 16 16 16 16 16 17 18 19 20 20 20 20 20 20 20 18 17 17 20 25 31 35 35 32
15 15 16 15 15 14 15 16 16 17 18 18 18 18 17 17 16 16 17 17 17 18 18 17 15 13 12 11 11 12 12 11 11 11 12 13 13 14 16 17 17 16 15 15 17 18 18 18 19 19 19 19 19 19 18 18 19 22 29 34 35 33
18 17 17 16 15 14 13 14 16 17 18 18 19 19 19 19 17 17 17 16 16 18 18 17 15 12 10 9 9 10 11 12 12 12 13 13 13 14 15 17 17 16 16 15 15 15 14 14 16 17 18 17 17 18 19 19 20 21 26 32 34 34
19 20 19 17 16 15 14 14 15 17 18 19 20 20 21 21 20 18 18 16 17 18 18 18 16 12 9 8 9 10 12 14 14 14 13 13 12 12 13 15 16 16 16 15 15 15 14 14 14 15 16 18 17 17 19 20 22 23 25 28 33 35
18 19 19 17 16 15 15 15 15 15 17 18 19 21 21 22 22 20 20 19 19 19 18 17 17 14 11 10 11 12 13 14 14 14 13 13 12 12 13 15 16 16 15 15 15 16 16 15 15 15 16 18 18 18 19 19 19 21 24 26 30 34
15 16 17 16 15 15 15 15 14 14 15 16 17 19 20 21 22 22 21 21 21 20 17 17 16 13 11 12 13 13 14 14 14 14 13 12 13 13 14 15 15 15 15 14 15 16 17 16 16 17 17 18 18 19 19 18 17 18 21 24 27 31
14 15 16 15 13 14 14 14 15 15 15 15 16 17 18 20 22 22 22 22 22 21 19 17 16 14 12 13 15 15 15 15 14 13 13 12 13 13 13 14 14 14 14 14 15 17 18 17 17 17 17 17 18 19 20 19 18 17 18 20 23 27
15 16 16 14 13 13 14 14 15 16 15 15 15 17 17 19 21 22 22 22 22 22 21 21 20 18 16 15 16 16 16 15 15 14 13 13 13 13 13 13 14 14 14 14 14 16 17 17 16 16 17 17 17 19 20 19 18 18 18 19 21 25
15 16 16 13 11 11 13 15 16 16 16 16 16 17 18 19 20 21 21 21 21 22 21 21 21 21 19 18 18 18 17 16 16 14 14 14 14 14 13 13 14 14 14 15 14 13 13 14 14 15 16 17 17 18 19 19 18 18 19 20 22 24
16 16 16 13 10 9 11 13 15 16 17 18 17 17 18 18 19 20 20 20 20 21 21 22 21 21 20 19 19 19 18 17 17 16 15 14 14 14 14 14 14 15 15 15 14 13 13 13 13 14 15 15 17 17 17 17 17 18 20 21 22 23
16 17 16 13 9 7 7 9 12 14 16 18 18 19 18 18 18 18 18 18 18 19 20 21 22 21 21 21 20 20 19 18 18 17 16 15 15 15 15 15 15 15 15 15 15 14 13 13 13 14 15 15 15 15 15 16 17 19 20 22 23 24
17 17 16 12 8 6 6 8 11 13 14 16 17 19 19 19 18 18 18 18 17 18 19 20 20 21 21 21 21 20 20 19 18 18 16 16 16 16 16 16 16 16 16 16 15 14 14 14 14 15 16 15 15 15 16 17 18 20 21 23 23 24
18 19 17 12 8 7 6 8 12 14 15 16 17 17 19 19 19 19 18 18 18 18 18 18 19 19 20 20 20 20 20 19 18 18 17 16 16 17 17 17 17 16 17 16 16 16 16 16 16 16 17 16 16 18 19 20 21 22 23 24 24 24
20 21 18 13 8 7 6 8 12 14 15 17 17 17 18 19 19 20 19 19 19 19 18 18 18 18 18 19 19 19 19 18 18 18 17 17 17 17 17 17 17 17 17 17 17 17 17 17 17 17 18 18 19 20 21 21 22 23 23 24 24 24
22 21 18 14 9 7 7 8 12 14 14 15 17 17 18 19 20 20 21 20 19 19 19 19 19 18 18 18 18 18 18 18 18 18 18 17 17 18 18 18 18 18 18 18 18 18 18 18 18 18 18 19 19 20 21 22 22 22 22 23 24 23
22 19 17 15 12 10 8 9 12 15 15 15 15 16 16 17 19 20 21 21 20 20 20 19 19 19 18 18 18 18 18 18 18 18 18 18 18 18 18 18 19 19 19 19 19 19 19 19 19 19 19 19 20 20 21 22 22 22 22 22 23 22
22 19 16 15 15 14 12 10 13 15 16 16 15 16 16 16 17 19 20 20 20 20 20 20 20 19 19 18 18 18 18 17 17 18 18 19 19 19 19 19 19 19 19 19 19 19 19 19 20 20 19 20 20 20 20 20 21 21 21 22 22 22
24 25 21 17 17 19 18 14 14 17 17 17 16 16 16 17 17 18 18 19 19 20 20 20 20 19 19 18 18 18 17 17 17 17 18 18 19 19 19 19 19 19 19 19 18 18 19 19 19 19 19 20 20 19 19 19 19 20 21 21 21 21
24 30 32 27 24 24 24 20 17 18 19 18 17 16 16 17 17 18 18 18 18 19 19 19 19 19 18 18 18 17 17 17 17 17 17 17 17 18 18 19 19 19 18 18 18 18 18 18 18 18 19 19 19 19 19 19 19 19 20 20 21 21
23 30 38 36 32 31 30 25 20 20 21 20 17 16 16 16 17 17 18 18 18 18 19 19 18 18 17 17 17 17 17 17 16 16 16 16 16 16 16 17 17 17 17 17 17 17 16 17 17 17 17 18 18 18 19 19 18 19 19 20 20 21
25 28 35 37 36 36 34 27 22 20 21 21 19 16 15 15 15 16 17 17 17 18 18 18 17 17 16 16 16 16 16 16 15 15 15 15 14 14 14 14 15 15 15 15 15 15 15 16 16 17 16 16 17 17 17 17 17 17 18 19 20 20
28 29 32 34 35 37 34 26 21 20 21 20 18 16 15 14 14 14 15 15 16 16 16 16 16 15 15 15 15 15 15 15 15 14 13 13 12 12 12 11 12 12 13 13 13 13 14 14 15 16 16 15 15 15 15 16 15 16 16 17 18 18
31 32 32 32 32 34 32 25 21 20 20 19 17 17 15 13 12 12 12 13 14 14 14 14 14 14 15 15 15 15 14 14 14 13 13 12 11 11 10 9 9 9 10 10 10 11 12 13 13 14 14 14 14 14 14 14 14 14 14 15 16 16
31 32 34 33 32 30 28 24 21 20 20 18 16 16 15 13 11 10 9 10 11 12 13 13 13 14 14 15 15 15 15 14 14 13 13 12 12 11 10 9 8 8 8 9 9 9 10 11 12 12 12 12 12 12 12 12 12 12 12 13 13 14
26 27 28 29 28 28 28 26 20 17 18 17 15 15 15 12 10 8 7 9 10 11 12 12 13 13 14 14 15 15 15 15 14 14 13 13 12 12 11 10 9 9 8 8 9 9 9 9 10 11 11 11 11 11 10 10 11 11 11 11 11 12
27 27 27 26 25 26 30 28 20 16 17 17 15 14 14 12 10 8 7 9 11 12 12 12 12 12 12 12 12 13 13 14 14 14 14 14 13 13 13 12 11 11 10 9 9 9 9 9 10 10 11 11 11 10 10 10 10 9 10 10 11 11

ECMWFFLT2_500_spd_015.txt.gz
Wind_Speed
25 24 22 20 19 19 20 22 23 24 24 24 24 24 24 24 24 25 25 25 24 24 24 23 21 20 19 17 16 15 14 14 13 13 15 17 20 21 22 21 21 20 19 19 19 19 19 17 17 17 18 19 20 20 21 21 21 21 21 21 22 23
23 21 20 18 19 20 22 24 25 25 25 24 24 24 24 25 25 25 25 24 24 23 23 22 21 20 19 17 16 16 15 14 13 13 15 17 19 21 22 21 20 20 19 19 19 19 19 17 16 17 17 18 19 20 20 21 21 22 22 22 23 24
23 22 21 20 20 22 24 25 25 25 24 24 24 24 25 25 25 25 24 24 23 23 22 21 20 20 18 17 16 15 15 15 14 13 14 16 18 20 21 21 20 20 19 19 19 19 19 18 17 17 17 18 18 19 20 21 22 22 23 23 24 24
31 34 31 26 24 25 25 25 25 24 24 24 24 25 25 24 24 24 23 23 22 22 21 21 20 19 18 16 15 15 15 15 14 13 14 15 16 18 19 19 19 19 19 19 19 19 19 19 18 17 17 18 19 19 20 21 22 23 24 25 25 25
27 32 31 27 26 25 25 24 24 24 24 24 24 23 23 23 23 23 23 22 22 22 21 21 21 20 18 16 15 14 14 14 14 13 14 15 16 17 17 17 17 18 18 19 19 19 20 19 19 18 18 18 19 20 20 20 21 23 24 25 25 25
19 24 28 28 25 24 23 23 23 23 23 23 22 22 22 22 22 22 21 21 21 20 20 21 21 20 18 16 15 14 14 14 14 14 14 15 15 16 16 16 16 16 17 18 19 19 20 20 19 18 18 18 19 20 21 21 21 23 24 26 26 26
16 21 24 24 22 22 22 22 22 22 22 21 21 21 21 21 21 21 21 20 19 19 19 20 20 19 17 16 14 13 14 13 14 14 14 14 14 14 15 15 16 16 17 18 19 19 19 19 18 18 18 18 18 20 21 22 23 24 25 26 27 27
16 19 20 20 19 20 20 20 20 19 19 19 20 20 21 22 22 21 20 19 19 18 19 20 19 17 16 15 13 12 13 12 13 13 13 13 13 13 13 14 15 16 16 17 17 17 18 18 17 17 16 16 17 19 20 21 22 24 26 27 28 29
13 15 17 18 18 18 19 18 17 17 17 18 19 20 21 22 21 20 18 18 18 17 18 18 17 15 15 15 13 12 12 12 11 11 12 12 11 11 12 13 14 15 15 15 16 16 17 17 16 16 15 15 17 19 20 19 19 21 24 26 28 29
6 9 13 16 18 18 17 16 15 15 16 17 19 20 20 20 19 18 17 16 16 16 17 17 15 13 13 13 12 12 11 11 12 12 12 11 10 10 11 12 13 14 14 14 14 15 16 17 17 16 16 15 17 19 21 21 20 20 22 23 25 28
3 7 12 14 15 15 14 14 14 14 16 17 19 19 19 18 18 17 15 15 15 15 14 14 13 11 10 10 10 10 11 11 12 13 13 12 11 10 11 12 12 12 12 12 12 13 15 16 16 16 16 16 18 19 20 21 22 22 23 23 23 25
5 9 12 13 13 13 13 14 14 15 16 18 19 19 18 17 16 16 15 15 14 13 12 12 11 9 8 9 9 10 11 11 12 13 13 13 12 11 11 12 12 13 13 13 13 13 14 14 14 15 16 16 17 18 19 20 22 23 24 23 23 24
9 11 13 13 13 13 14 15 16 17 17 18 19 19 18 16 15 16 16 15 14 12 11 11 10 9 9 9 10 11 11 12 13 13 13 13 13 12 12 12 13 14 15 15 15 15 15 15 15 15 15 16 17 17 17 18 20 23 24 24 24 24
11 12 13 13 14 14 15 16 17 17 18 18 19 19 18 16 15 16 16 15 14 13 11 11 10 9 9 10 11 11 12 12 12 12 13 13 13 13 13 13 13 14 15 16 17 17 17 17 16 16 16 16 16 16 17 17 19 22 24 24 24 24
11 13 13 13 14 14 15 15 16 17 17 17 18 18 18 16 15 14 14 14 14 13 12 12 11 10 10 10 11 12 12 12 11 12 13 13 13 13 13 13 14 15 16 17 18 18 19 19 18 18 17 17 16 15 16 17 18 21 23 24 24 24
12 13 14 14 14 14 14 15 15 16 16 17 17 18 18 16 14 13 12 12 13 13 12 12 12 12 11 12 12 12 13 13 13 14 14 13 14 13 13 14 14 16 17 17 18 18 19 19 19 18 19 18 18 17 16 16 17 19 21 23 23 24
13 13 14 14 13 14 14 15 15 16 16 17 17 18 17 17 15 13 11 11 12 12 12 12 12 12 12 12 12 13 14 14 15 16 16 15 14 13 12 13 14 15 16 17 17 17 18 18 18 19 19 19 19 18 18 17 16 18 20 22 23 23
13 13 14 14 14 15 15 16 16 16 16 17 18 17 17 16 16 14 12 11 11 11 11 11 11 11 11 11 13 14 16 16 17 17 17 16 15 13 12 13 14 14 15 15 16 17 17 18 18 18 19 19 19 19 20 19 17 18 19 21 23 23
13 14 14 14 15 16 17 17 16 16 16 17 17 17 16 16 15 14 13 11 10 10 10 10 10 10 10 11 13 16 18 19 19 18 18 17 14 13 12 13 14 14 14 14 15 16 17 17 18 18 18 18 19 20 20 19 17 17 17 20 21 21
13 13 14 15 16 16 17 17 16 16 15 16 17 17 16 15 14 14 13 12 11 10 10 10 10 10 11 12 14 17 17 18 18 17 17 16 14 12 12 13 15 15 14 14 14 16 17 18 18 17 17 18 20 21 20 19 17 16 16 18 20 20
12 12 13 14 14 14 16 17 17 16 15 15 16 16 16 16 14 13 13 13 12 11 11 10 10 11 12 13 14 16 16 16 17 17 16 15 14 14 15 15 16 16 15 14 15 16 17 18 18 18 17 17 18 19 19 18 18 17 16 18 19 19
12 12 13 13 13 14 17 18 18 17 16 15 16 16 16 16 14 13 13 13 13 13 12 11 11 12 13 14 15 15 15 16 18 18 18 16 16 16 16 16 16 17 17 16 16 17 18 18 18 18 18 18 18 18 18 18 17 16 16 16 18 20
14 13 12 12 13 14 16 18 19 18 16 15 17 18 18 17 16 14 14 14 14 14 13 13 12 12 13 13 14 15 15 16 17 19 18 17 16 17 16 17 18 19 19 18 18 19 19 18 18 18 19 19 19 19 19 18 18 17 15 15 16 19
14 13 12 12 13 14 16 18 20 19 16 14 15 17 18 18 17 16 15 15 15 15 15 14 14 13 13 13 14 14 15 16 17 18 18 17 18 18 19 20 21 21 21 20 20 20 19 19 18 18 19 19 19 19 19 19 19 18 17 16 17 18
13 13 13 13 13 14 16 18 20 19 15 12 14 16 18 19 19 18 17 16 16 16 16 15 15 15 14 14 14 15 16 17 17 18 18 19 19 20 21 22 23 22 22 23 23 22 20 20 20 19 19 20 20 21 21 20 21 21 20 20 19 20
12 13 13 14 14 15 17 19 20 19 14 10 11 13 15 17 19 20 20 18 16 16 17 16 16 16 15 15 15 15 16 17 18 19 20 21 21 22 22 23 24 25 23 23 23 22 20 20 21 21 20 20 22 23 22 22 23 23 23 22 22 22
12 13 13 14 14 14 16 18 20 18 14 11 11 11 11 12 16 20 22 21 19 17 17 17 17 17 17 17 16 16 16 17 18 18 19 20 21 22 22 23 25 25 22 22 22 22 20 19 20 20 20 22 22 23 23 23 24 25 24 24 24 24
12 13 14 14 14 14 14 15 17 17 15 14 14 13 13 16 21 23 23 23 21 19 17 17 17 17 17 17 17 17 17 17 17 18 18 19 20 21 22 22 23 23 22 21 22 21 21 22 23 21 22 23 23 24 24 25 26 26 26 26 26 26
11 12 13 14 14 14 14 14 15 17 18 19 19 19 21 26 28 26 22 23 23 20 19 18 17 17 16 16 16 16 16 16 17 17 18 19 19 20 20 21 21 21 21 21 21 21 22 24 25 24 24 25 25 25 26 26 27 27 27 27 27 27
13 13 14 15 15 16 16 16 16 16 19 21 22 24 25 26 26 24 22 22 22 21 19 18 17 17 16 15 15 15 15 15 16 16 17 18 18 19 19 19 19 20 20 20 21 22 22 23 24 25 25 26 26 26 27 27 28 28 28 28 28 28
15 16 17 17 18 18 18 19 19 19 19 21 23 25 25 23 22 23 21 20 21 20 18 17 16 17 16 15 14 13 13 13 14 15 16 16 17 17 18 18 18 18 19 19 20 21 21 22 23 23 24 25 26 26 27 27 27 27 28 28 28 28
17 18 19 19 21 21 19 19 20 21 21 21 23 26 25 23 23 22 19 19 20 19 17 16 15 16 15 14 14 13 12 12 12 13 13 14 15 16 16 16 17 17 17 18 18 19 19 20 21 22 22 23 23 24 24 25 25 25 25 25 26 27
18 18 19 20 22 23 22 21 21 21 21 21 23 26 26 23 23 22 19 19 19 17 16 14 14 14 14 14 13 13 11 10 10 10 11 12 13 13 14 15 15 16 16 17 17 17 18 18 19 20 20 20 21 21 21 22 22 22 22 23 23 24
18 18 18 19 21 23 24 25 24 22 19 18 19 22 22 22 24 24 20 18 18 17 15 12 12 13 13 12 12 11 11 10 9 9 9 10 10 11 12 13 14 15 15 16 16 16 17 17 17 18 18 18 18 18 19 19 20 20 20 20 21 21
16 17 18 19 21 22 22 20 19 18 18 18 19 18 18 20 24 24 19 17 18 16 13 12 11 12 11 11 10 10 10 10 10 10 10 9 9 10 10 11 12 13 14 14 15 15 15 15 16 16 16 16 16 16 17 17 18 18 18 19 19 19
15 16 18 20 21 19 18 17 17 19 19 18 18 16 14 19 23 21 17 16 16 15 13 12 12 11 10 8 7 7 8 9 10 11 12 11 11 10 10 10 11 11 12 12 13 13 13 13 13 14 14 15 15 15 15 16 16 17 17 17 17 17
15 17 19 22 21 17 17 18 19 20 18 16 15 13 14 20 22 19 16 16 15 14 12 12 12 11 9 7 6 5 6 8 9 11 12 12 12 11 11 10 10 10 10 11 11 11 11 11 12 12 13 13 14 14 14 14 15 16 16 17 16 16

ECMWFFLT2_500_spd_021.txt.gz
Wind_Speed
19 19 21 21 18 14 15 19 20 20 19 17 18 18 19 21 24 25 25 25 25 25 25 24 24 23 22 22 21 19 18 18 18 18 18 19 19 20 20 19 19 20 21 21 20 20 21 23 24 25 25 24 23 22 21 21 20 19 19 19 19 19
18 17 18 19 18 16 15 16 19 21 20 18 18 18 19 22 25 26 26 26 26 26 25 25 24 23 22 21 20 19 18 17 17 18 19 19 19 20 20 20 20 20 21 22 21 20 21 23 25 26 26 26 25 24 23 22 21 21 20 20 20 21
16 14 15 16 16 17 16 16 18 19 20 19 19 19 21 24 25 25 27 27 26 26 26 25 24 23 22 20 19 19 18 18 18 18 19 20 20 20 20 21 21 20 20 21 21 21 21 23 25 27 27 27 26 26 25 24 23 22 22 21 22 22
13 12 13 15 16 16 15 16 17 17 19 19 19 21 23 23 24 25 26 26 26 26 25 25 24 23 21 20 20 19 19 19 18 18 19 20 20 20 21 21 22 21 20 20 20 20 21 22 24 26 26 26 26 26 25 25 23 23 22 22 23 23
11 11 11 13 15 15 15 16 16 17 19 20 21 22 21 21 22 24 25 26 26 26 25 25 23 21 20 20 20 20 20 19 19 19 19 19 20 20 21 21 21 20 19 19 19 20 21 22 23 25 25 26 26 26 26 25 24 23 23 23 24 24
12 10 11 13 15 17 17 17 17 19 20 21 21 19 19 21 23 24 25 26 26 26 25 24 22 21 20 19 19 19 19 19 19 19 19 19 19 20 20 21 20 19 18 17 18 19 20 21 23 23 24 25 26 26 26 26 25 24 24 24 24 25
12 11 12 15 17 18 18 18 19 21 21 19 19 18 20 22 22 23 24 25 26 26 25 24 22 20 20 19 19 19 19 19 18 18 18 18 18 19 19 20 19 19 17 16 17 18 19 21 22 23 23 24 25 26 26 26 25 25 24 24 25 25
12 12 14 15 17 18 18 20 20 19 19 18 18 19 20 21 22 23 24 25 25 24 23 22 20 19 19 19 19 20 19 19 18 17 17 18 17 17 19 19 19 19 18 17 16 17 18 20 21 22 23 24 25 25 25 25 25 25 25 24 24 24
11 13 14 15 16 18 18 18 18 16 16 16 17 18 19 20 21 22 23 23 22 21 21 20 19 18 18 18 19 19 19 18 17 16 17 17 16 16 17 18 18 19 19 18 17 17 18 19 20 21 22 23 24 24 23 23 24 25 25 24 23 23
12 14 15 15 16 16 15 14 14 14 14 15 15 17 18 19 20 21 21 20 19 19 19 18 17 17 17 17 18 18 17 16 16 16 17 17 16 16 16 17 17 18 18 18 17 17 17 17 18 19 21 22 23 23 23 23 24 24 24 24 23 23
12 13 13 13 11 10 10 9 10 11 13 14 15 16 17 17 18 19 19 18 17 17 17 16 16 16 17 17 16 16 15 16 17 17 18 18 18 17 17 17 17 17 17 17 16 16 17 17 18 19 20 21 21 22 23 24 24 24 24 24 24 24
11 9 8 7 6 6 6 6 8 10 11 12 14 15 16 17 17 18 18 16 15 14 14 14 16 17 18 17 15 14 15 17 18 18 18 18 18 17 17 17 16 16 16 16 15 16 17 17 18 19 19 20 20 21 22 22 23 24 24 24 24 25
9 7 6 5 5 4 5 7 9 10 12 13 14 14 15 16 16 17 16 13 13 13 12 13 15 17 18 17 14 14 15 16 17 17 17 17 17 17 17 17 16 16 15 15 15 17 17 18 18 18 19 19 19 20 21 21 21 23 24 24 25 25
10 9 9 8 6 6 7 9 11 12 13 13 13 14 15 15 15 15 14 12 13 13 12 13 14 15 18 16 13 14 15 15 15 16 16 16 17 17 18 18 17 17 16 15 16 17 17 18 18 19 20 20 20 21 21 20 20 22 23 24 25 26
12 13 14 12 9 8 9 11 12 12 12 12 12 13 13 13 13 13 13 13 13 12 13 14 13 15 17 16 13 14 14 14 15 16 16 17 18 18 20 20 19 18 17 17 17 17 17 17 17 18 20 20 20 20 20 19 20 22 22 23 24 25
14 15 16 14 11 9 11 12 12 11 11 11 11 11 12 12 11 11 12 12 12 12 13 13 13 16 17 14 13 14 14 15 16 17 17 17 18 19 21 21 20 19 18 18 18 18 17 18 18 18 19 19 19 19 19 19 20 21 21 22 23 24
14 16 16 15 13 13 15 14 12 10 10 10 10 10 11 11 10 10 10 11 11 11 11 12 14 17 16 14 14 14 15 15 16 17 17 17 18 19 21 21 21 20 19 19 19 18 17 18 19 18 18 19 19 19 19 19 20 20 21 21 22 23
11 14 16 17 17 17 17 15 12 11 10 10 10 10 10 10 10 9 9 10 11 10 10 11 14 16 16 15 15 15 15 16 17 17 18 18 18 19 20 21 21 21 20 19 19 18 18 18 19 18 18 19 20 20 19 19 19 20 20 20 20 21
8 11 14 16 17 18 17 15 13 11 11 10 10 10 11 11 11 10 9 9 11 11 11 12 13 15 16 16 15 15 16 17 18 18 18 17 18 18 19 20 21 22 21 20 19 19 18 18 19 18 18 18 19 19 18 17 18 19 20 20 21 21
7 9 11 13 14 15 15 14 12 11 10 10 10 11 12 12 12 11 10 10 11 12 13 13 13 15 16 16 16 16 16 17 18 18 18 17 18 19 19 19 21 22 21 21 20 19 18 18 19 18 18 18 19 19 17 17 18 19 20 20 21 21
8 9 10 11 13 15 14 13 12 10 10 10 11 11 12 13 13 12 11 11 11 12 13 14 14 15 15 15 16 17 17 19 18 17 18 18 18 20 20 20 20 21 22 21 20 19 19 19 19 18 18 18 18 18 18 17 18 19 20 21 21 21
9 10 11 12 14 14 14 13 12 11 11 11 11 12 12 13 13 13 13 12 12 13 13 13 14 15 14 14 15 16 17 19 19 18 19 19 18 20 20 20 21 21 21 21 21 21 20 20 20 19 19 19 18 18 19 19 19 19 20 20 20 21
12 12 12 13 14 15 14 14 13 12 12 12 12 12 13 14 14 14 13 13 12 13 13 13 13 13 14 14 14 15 16 18 19 20 20 20 19 19 20 21 21 22 22 22 22 22 22 21 21 20 18 18 17 17 17 18 19 19 20 20 20 20
13 13 13 13 14 15 14 14 13 13 12 12 13 13 14 15 15 14 13 12 12 11 12 12 12 12 12 13 14 15 16 17 18 19 20 20 20 20 20 21 21 22 23 23 23 24 23 22 21 20 18 18 18 17 16 17 18 19 19 20 19 19
13 13 13 13 14 15 14 13 13 13 13 13 13 14 14 16 16 15 13 12 12 11 9 10 12 12 12 12 13 15 16 17 18 19 19 19 20 20 20 20 21 22 23 24 24 25 25 22 21 21 20 19 19 19 18 18 18 17 19 19 20 20
12 13 13 13 14 15 14 13 13 13 13 13 13 14 14 15 16 15 14 13 13 12 10 10 13 15 14 13 13 14 16 17 18 19 19 20 20 20 21 21 21 22 23 24 25 26 25 23 22 22 21 20 20 20 20 20 20 19 19 20 20 21
12 13 13 13 14 15 15 14 13 14 15 15 14 14 14 14 15 15 15 15 15 15 14 15 17 18 18 17 15 15 16 17 18 19 20 20 21 21 22 22 22 22 23 24 25 26 26 25 23 23 22 22 22 22 22 22 23 22 21 21 21 21
11 12 13 14 16 17 16 15 14 15 16 16 16 16 14 13 14 15 16 17 17 18 19 21 22 21 19 19 19 17 17 17 18 19 20 21 21 22 23 23 23 23 24 24 25 26 27 26 25 24 24 24 23 23 23 24 24 24 23 23 23 22
12 13 14 15 16 17 17 16 16 17 18 18 18 18 17 15 15 16 17 18 19 21 23 24 25 23 20 19 19 19 18 18 19 20 21 22 23 23 23 24 24 24 25 25 25 26 26 26 25 25 24 24 23 23 22 22 23 23 23 23 23 24
12 14 15 16 17 17 17 17 17 19 20 21 21 21 20 19 19 18 19 20 21 22 24 25 25 24 22 19 18 18 18 18 20 21 22 23 24 24 24 24 25 25 25 25 25 26 26 26 26 25 24 23 23 22 22 22 22 23 23 23 25 25
14 15 16 17 17 18 18 19 20 21 22 23 23 23 22 22 22 22 22 22 23 23 25 26 27 26 24 21 17 16 17 18 20 22 23 24 25 26 26 25 26 26 26 26 26 26 26 26 25 25 24 23 22 22 22 23 23 23 23 24 25 25
17 17 18 19 19 20 21 22 22 23 23 23 24 24 24 23 24 24 24 24 23 23 23 24 26 25 25 22 18 15 16 18 20 22 23 24 25 26 27 27 26 26 26 26 26 26 26 25 24 23 23 22 22 22 22 22 22 23 23 23 23 23
19 20 21 21 22 23 24 24 25 24 23 23 24 25 25 24 24 25 25 25 23 20 19 21 23 24 23 21 18 15 16 18 19 21 23 24 26 27 27 28 28 27 27 27 26 26 25 24 23 22 21 21 21 20 19 19 20 20 20 20 20 20
22 22 22 23 24 24 24 24 23 21 19 20 22 23 24 24 24 25 26 26 23 20 18 19 21 21 20 18 16 15 15 17 18 20 23 24 26 27 28 28 28 28 27 26 25 24 24 23 22 20 19 19 18 18 17 17 16 16 16 16 16 16
23 22 21 22 22 22 22 21 20 19 19 19 21 22 22 23 22 22 22 23 23 22 19 19 20 19 18 16 14 14 15 16 17 19 22 24 26 27 27 28 27 27 26 25 24 23 22 21 20 18 17 16 16 16 15 14 14 14 13 13 13 13
22 21 19 18 19 21 21 20 20 21 21 21 23 23 21 20 20 19 20 20 21 21 19 18 18 18 17 16 14 14 15 16 17 18 21 22 24 25 26 26 26 26 25 24 23 22 21 20 18 17 16 15 15 14 14 13 13 12 11 11 11 10
21 20 18 18 20 22 22 22 22 23 23 23 24 22 19 19 19 20 21 20 18 19 19 18 18 18 18 16 15 15 15 16 17 18 19 21 22 23 24 24 24 24 24 23 23 22 21 20 18 17 16 15 14 13 13 12 11 11 10 10 10 9

ECMWFFLT2_500_spd_024.txt.gz
Wind_Speed
23 23 23 21 18 17 18 19 16 17 21 23 26 27 26 23 20 19 18 18 19 21 22 22 23 23 22 22 20 19 19 18 18 17 17 16 16 16 16 17 18 19 19 21 22 23 24 25 24 23 22 22 21 21 20 19 18 18 18 18 17 17
22 21 20 16 15 16 17 17 15 15 18 21 22 22 21 20 19 18 17 19 20 21 21 22 22 22 21 21 20 20 19 19 18 18 17 17 16 16 16 17 18 19 19 20 22 23 24 25 25 24 24 24 24 23 22 20 20 20 19 19 19 19
18 18 16 14 16 17 16 17 16 16 16 18 19 19 19 19 18 18 18 19 20 20 20 20 20 20 20 20 20 20 20 19 18 18 18 18 17 16 17 17 18 19 19 20 21 23 24 25 26 26 26 26 26 25 23 22 22 22 21 21 20 20
14 16 16 14 13 14 15 16 15 15 16 18 19 19 19 20 19 19 19 20 19 18 18 19 19 20 20 20 21 21 20 19 19 18 18 18 17 17 17 17 18 19 19 19 20 22 24 26 27 27 27 27 27 26 25 24 24 24 23 22 21 22
12 15 15 12 11 13 15 17 17 18 19 21 22 20 19 19 19 20 20 19 17 17 18 19 20 20 21 21 21 20 19 19 18 17 17 17 17 17 17 18 18 18 18 18 19 21 24 26 27 27 27 27 27 26 26 26 25 25 24 23 23 23
13 13 14 13 13 14 15 15 17 20 20 19 20 20 21 20 19 20 18 17 17 17 18 20 20 20 21 21 20 19 19 19 18 17 17 17 17 17 18 18 18 18 18 18 18 20 23 26 27 27 27 26 26 26 26 27 27 26 25 25 24 24
13 12 13 13 13 14 13 12 11 15 17 18 17 15 18 20 19 18 17 17 17 18 19 20 21 21 21 20 19 19 19 18 18 18 17 17 17 18 18 18 18 18 17 17 17 19 22 24 26 26 25 25 26 26 27 27 27 27 26 25 24 24
12 12 13 13 13 13 13 11 9 10 13 17 16 12 14 17 17 17 16 17 17 18 19 20 22 22 20 19 18 18 19 19 19 18 18 18 18 18 18 18 16 16 16 17 17 19 21 22 23 24 24 24 25 26 26 27 27 26 26 25 24 24
12 12 12 13 13 12 12 12 11 11 11 12 14 13 13 14 14 15 16 17 18 19 19 20 21 21 19 17 18 19 19 19 18 18 18 18 18 18 18 17 17 16 15 16 17 19 20 21 22 22 23 23 24 25 25 26 26 26 25 25 24 24
13 13 12 12 11 10 11 14 15 12 9 9 13 16 15 13 13 14 15 16 17 18 18 18 19 19 18 18 19 19 19 18 17 18 18 17 18 18 18 17 18 18 16 16 17 18 19 21 22 22 22 22 23 23 23 24 24 25 24 24 24 23
12 12 11 11 11 12 11 12 13 11 10 10 12 13 13 12 12 13 14 16 16 17 18 18 17 17 17 17 18 16 15 15 16 17 16 17 17 16 17 17 17 18 17 17 16 16 18 19 21 21 21 21 22 22 22 23 23 23 22 22 23 22
13 13 12 11 11 12 10 8 9 10 11 10 9 9 10 11 11 12 15 15 15 16 17 18 17 16 15 16 15 14 13 14 14 15 15 16 15 14 16 16 16 17 17 16 16 16 17 17 19 20 20 21 21 22 23 23 23 23 22 22 23 22
12 12 11 10 9 9 9 9 9 9 9 9 8 9 9 10 11 14 16 14 14 15 16 17 15 13 14 13 12 12 13 14 12 12 14 15 15 14 15 15 15 16 17 16 15 16 16 17 18 19 19 21 21 22 23 24 24 24 23 24 24 24
9 10 10 9 9 9 9 9 9 8 9 9 8 9 9 11 12 14 15 13 14 15 15 15 13 12 11 10 11 10 11 12 12 11 13 14 15 14 14 14 15 16 16 16 15 16 17 17 17 17 19 20 21 22 23 24 24 24 24 25 25 25
7 9 10 11 11 12 12 11 11 11 11 11 10 10 11 12 12 13 13 13 13 14 14 14 11 11 11 8 9 10 10 11 11 11 13 14 15 15 14 15 15 16 16 16 16 16 17 17 17 18 19 20 21 22 23 23 23 23 23 24 25 26
8 10 10 12 13 14 14 14 13 12 12 12 12 12 12 12 13 12 13 13 12 12 12 12 10 10 10 8 8 9 9 10 11 11 13 14 15 16 16 15 15 16 17 17 17 17 17 17 17 17 18 19 20 21 22 22 22 22 22 23 25 25
9 10 10 11 13 13 13 13 12 12 13 13 13 13 13 13 13 12 12 13 13 12 11 10 8 8 8 8 8 9 10 10 11 12 13 15 15 16 16 16 16 16 17 17 18 18 18 17 16 16 17 18 19 20 20 20 21 21 21 21 22 21
11 9 8 9 10 11 12 13 12 12 13 14 13 13 14 14 14 13 12 12 13 13 12 11 9 8 8 8 9 10 11 12 12 12 14 15 16 16 16 17 17 16 16 17 18 18 17 16 16 16 17 17 18 19 19 19 19 20 20 21 21 20
11 8 7 8 8 9 10 11 11 12 13 14 14 14 14 14 14 14 13 13 13 13 13 13 11 10 8 9 10 11 11 12 13 13 14 14 15 16 17 17 16 16 16 17 17 18 17 16 16 17 17 17 17 18 18 18 19 19 20 21 21 21
13 8 7 7 7 7 8 9 10 10 12 12 13 13 13 13 13 14 14 14 14 14 14 14 13 11 10 10 11 11 11 11 13 14 14 14 14 15 16 16 16 15 16 16 17 17 17 16 17 17 17 16 16 17 17 18 18 18 19 19 20 21
13 10 9 8 8 8 9 10 9 10 11 12 12 12 13 13 13 14 14 14 14 15 15 15 14 13 12 12 12 12 12 12 13 14 14 13 14 14 15 15 15 15 15 16 18 18 17 17 17 17 16 16 16 16 16 16 17 17 18 18 19 21
13 12 11 10 11 11 12 12 11 12 12 12 12 12 13 13 13 14 15 15 15 15 16 16 15 15 14 13 13 12 12 12 13 14 14 13 14 15 15 15 16 16 16 17 18 19 18 17 17 16 16 16 16 16 16 16 16 17 17 18 19 19
13 12 12 13 14 14 15 14 13 13 13 13 13 13 13 13 14 14 15 15 16 16 16 15 15 14 14 14 14 13 13 13 13 13 14 14 15 16 16 16 16 16 17 18 19 20 20 19 17 16 16 16 16 16 16 16 16 16 17 17 18 18
14 14 14 16 17 17 16 16 15 15 15 15 15 14 14 14 14 15 15 16 16 16 15 15 14 12 11 11 13 14 14 14 14 14 15 15 16 17 17 17 16 16 17 18 20 20 21 20 19 17 17 17 17 17 16 15 15 15 16 16 16 17
16 16 18 19 19 18 17 17 17 17 17 17 16 15 15 14 14 15 16 16 16 16 15 14 13 12 10 9 11 13 14 14 14 15 16 16 17 17 18 18 17 17 17 19 20 20 21 21 19 18 17 17 17 18 17 15 14 15 15 15 15 15
19 19 20 20 20 19 19 18 18 17 18 18 17 15 14 14 13 13 15 16 16 16 15 15 14 13 13 12 12 13 15 15 15 15 16 17 17 18 18 18 18 17 18 19 19 20 21 20 19 19 18 17 17 18 17 16 15 16 16 16 15 16
19 20 20 20 20 20 20 19 18 18 18 17 16 15 14 14 13 12 12 13 14 15 16 16 16 17 17 18 18 17 17 17 17 16 16 17 18 18 19 19 18 18 18 19 19 20 20 20 20 19 18 18 19 19 18 17 18 18 17 17 17 18
19 19 20 20 20 20 20 18 18 18 18 17 16 15 15 14 14 13 12 12 13 15 16 17 17 19 20 22 22 21 19 19 19 19 18 17 18 19 19 19 19 19 20 20 20 20 20 20 20 20 19 20 20 19 19 19 18 18 18 18 18 18
19 20 20 20 20 20 19 18 17 17 17 16 16 15 15 16 16 15 15 14 14 15 17 17 18 19 21 23 23 23 21 20 20 21 21 19 18 18 19 20 20 21 21 21 21 21 20 20 20 20 20 21 21 20 20 19 18 18 18 17 17 18
20 20 20 20 19 19 18 17 16 16 16 16 16 17 17 18 18 18 18 18 18 19 19 19 20 21 22 23 24 24 23 21 21 22 23 21 19 19 19 20 21 21 22 22 22 22 21 21 20 20 20 21 21 21 20 20 19 19 18 18 18 18
22 22 21 20 19 18 17 17 17 17 17 18 19 20 21 21 22 22 22 22 23 23 23 23 22 22 23 24 25 25 24 23 21 22 23 23 21 19 19 19 21 22 22 23 24 23 23 22 22 21 21 21 20 21 20 20 20 19 19 19 19 19
24 23 21 20 19 19 19 19 19 19 20 21 22 22 23 23 24 24 25 25 25 26 26 25 24 22 22 23 24 24 23 23 22 22 22 23 21 20 19 20 20 21 22 23 24 24 24 24 24 23 22 21 21 21 21 20 20 19 19 19 19 19
26 24 23 21 21 22 22 23 22 22 23 23 24 24 24 24 23 24 25 26 26 27 27 26 24 23 21 21 22 22 22 23 22 22 21 21 20 20 20 20 20 21 21 22 23 24 25 25 25 24 23 22 22 22 21 20 20 19 18 18 18 18
26 25 24 24 23 24 25 24 23 23 24 25 24 23 23 23 22 23 25 26 28 28 27 26 24 23 21 20 20 21 21 22 22 21 20 19 19 18 19 19 20 21 22 23 23 24 25 25 25 25 24 23 23 22 21 20 19 19 19 18 18 18
24 23 22 23 24 24 24 23 23 25 25 24 23 21 21 21 21 24 26 27 28 27 25 24 22 21 20 19 19 20 20 21 20 18 17 17 16 16 17 18 19 20 22 23 24 25 25 26 25 25 24 23 22 21 20 20 18 18 17 17 17 16
24 21 19 20 23 24 23 24 24 24 23 22 21 20 20 20 22 25 26 26 25 25 24 22 21 20 19 19 19 19 19 19 18 16 15 15 14 15 15 16 18 19 21 22 24 25 25 25 25 24 23 22 21 20 19 18 17 16 16 16 15 15
26 24 20 19 21 22 23 23 22 21 20 20 21 21 21 22 22 22 22 22 23 23 23 23 21 20 19 19 19 18 18 17 16 14 13 13 13 13 14 16 17 18 19 21 22 23 24 24 24 23 22 21 19 18 17 17 16 16 15 15 14 13

ECMWFFLT2_500_spd_027.txt.gz
Wind_Speed
22 18 16 19 18 16 17 18 18 18 16 16 18 19 22 28 29 29 32 34 30 22 19 18 19 20 20 20 20 20 20 20 18 17 16 15 15 15 15 16 16 17 17 18 18 20 21 22 22 22 21 20 20 21 21 20 18 18 18 16 14 15
20 19 19 20 20 20 20 18 19 18 14 13 14 16 18 24 27 29 30 29 23 19 18 18 19 20 19 19 19 19 19 19 18 17 16 15 15 15 15 16 17 17 17 18 18 19 21 22 23 23 22 22 22 23 22 21 20 19 19 16 16 17
19 22 23 23 23 22 19 17 19 16 12 12 14 17 19 22 24 25 23 21 18 18 19 19 20 19 18 17 17 18 19 19 18 16 16 16 16 16 16 16 17 17 17 17 18 19 21 23 24 24 24 24 24 24 23 22 22 21 20 17 17 19
20 23 24 24 23 21 18 17 16 13 11 12 13 16 18 19 19 20 19 18 18 19 21 20 19 17 16 17 17 18 19 19 17 16 16 16 16 16 16 17 17 17 17 17 17 19 21 22 23 24 24 25 25 25 24 24 24 23 20 18 19 20
22 24 23 22 20 19 18 14 12 13 13 13 12 12 14 15 16 17 17 18 18 19 21 19 16 16 15 17 18 19 18 17 17 16 16 16 16 16 16 17 17 18 17 17 17 18 20 22 22 23 24 25 25 25 25 25 24 23 21 20 20 21
25 24 21 20 19 18 16 14 13 13 13 12 11 10 10 12 14 15 15 15 14 16 18 15 14 16 15 16 18 19 18 17 17 17 17 16 17 16 16 16 16 17 17 17 17 18 19 21 22 23 24 24 25 25 24 24 24 24 22 21 21 21
25 22 20 18 16 15 14 14 15 14 12 12 12 12 12 12 12 14 15 14 14 16 16 13 14 17 16 17 19 18 16 16 17 18 18 18 19 18 17 16 15 15 15 16 16 17 18 20 22 23 24 24 24 25 24 24 24 24 22 21 22 22
22 19 17 17 15 13 13 13 14 14 13 12 13 14 15 14 13 15 16 16 16 15 14 13 15 17 16 17 18 15 13 14 17 18 17 17 18 16 16 16 15 14 14 14 15 16 18 19 20 22 22 23 24 25 24 23 23 23 22 22 22 22
18 16 13 15 16 15 15 14 14 14 13 11 11 13 16 18 17 16 15 15 15 16 16 15 16 17 15 17 18 16 14 15 16 17 16 15 15 14 13 14 14 15 15 14 14 15 17 18 19 20 21 22 23 24 24 23 23 23 23 22 22 22
16 15 13 15 15 15 15 14 13 12 13 12 12 13 15 18 18 15 13 13 14 15 16 16 16 16 15 16 18 18 16 16 17 18 19 18 16 14 13 13 14 15 15 14 14 15 16 17 18 18 20 21 21 22 23 22 23 23 24 24 23 23
15 15 15 14 13 14 13 13 13 12 13 13 13 12 12 14 13 11 11 12 13 14 14 14 15 15 15 16 17 17 16 15 16 18 19 18 17 15 13 12 13 14 15 15 14 15 15 15 16 16 18 20 20 21 22 22 23 23 24 24 23 22
16 17 16 14 13 13 13 13 13 12 11 11 12 11 10 10 11 11 10 11 12 13 12 13 13 13 14 16 15 15 15 13 14 16 16 15 15 15 14 12 11 11 12 14 14 15 16 15 15 15 16 18 19 20 22 22 23 24 24 25 24 23
16 19 17 16 13 11 12 12 11 10 9 9 9 9 9 8 9 11 11 11 12 13 13 13 13 12 13 14 14 14 13 12 13 14 14 13 13 12 12 11 11 11 12 14 14 14 15 15 15 14 14 15 16 18 20 22 23 24 24 24 24 23
14 18 16 15 13 12 12 11 10 9 7 7 6 7 10 9 9 11 11 11 13 14 13 13 13 12 12 12 12 12 12 12 12 13 13 12 12 11 10 10 10 10 10 13 13 11 12 14 14 13 13 14 15 16 18 20 22 23 23 23 23 22
14 16 14 12 12 13 13 11 10 8 6 6 7 9 12 12 12 12 12 12 12 13 13 13 12 11 10 9 9 10 11 12 11 11 12 12 10 9 8 8 8 8 8 10 11 9 9 12 13 13 14 15 15 15 17 19 21 22 22 21 21 21
12 15 14 11 11 12 10 9 10 10 8 10 13 14 15 14 14 14 14 13 12 12 13 13 11 10 8 7 8 10 12 12 10 11 12 11 10 8 7 7 6 7 7 8 9 8 9 11 12 13 15 15 15 16 19 20 21 22 21 21 21 22
11 13 12 10 11 12 8 5 8 11 13 16 18 18 17 15 15 15 15 14 13 12 12 12 12 10 9 8 8 10 12 12 11 11 10 10 10 8 8 8 7 7 7 8 8 9 10 12 13 14 15 15 16 17 18 18 19 20 19 20 21 21
11 13 12 10 12 13 10 8 12 14 16 17 17 16 16 15 14 14 15 14 14 13 12 12 11 11 10 9 9 10 12 12 11 11 10 10 9 8 8 10 9 9 8 8 9 10 11 12 13 13 14 14 15 16 17 18 17 18 17 18 19 18
12 14 14 12 14 14 12 12 14 15 16 16 15 14 14 14 15 15 15 15 15 14 13 12 11 11 11 10 11 12 13 13 11 10 11 11 9 8 8 9 10 10 10 9 9 10 10 12 12 12 13 13 14 15 17 17 16 16 17 16 17 17
16 16 17 16 16 13 11 13 15 15 15 15 14 14 14 14 15 15 16 16 16 15 14 13 12 11 11 11 12 13 14 16 14 12 12 12 10 9 7 7 9 10 11 10 10 10 10 11 12 12 12 12 13 13 15 16 14 14 15 15 15 15
18 18 20 19 17 13 12 15 15 15 15 15 15 15 14 15 15 16 16 16 17 17 15 13 12 12 11 12 13 13 14 16 17 15 14 13 12 10 9 8 9 10 11 11 10 10 11 12 12 12 12 12 13 12 13 14 13 12 14 14 14 13
19 20 24 23 19 15 15 15 15 16 16 16 16 16 16 16 17 17 17 16 17 17 17 14 13 12 12 12 13 14 14 16 17 16 16 15 14 12 11 10 10 11 11 11 10 10 12 13 13 12 13 12 12 11 12 14 13 13 12 13 13 12
21 23 26 26 22 17 17 17 17 17 17 17 17 17 18 18 18 18 17 17 17 17 17 16 14 13 13 13 13 14 14 15 15 16 16 16 16 15 13 11 10 11 10 10 11 11 13 15 14 13 13 11 10 11 11 12 12 12 11 12 11 12
23 24 24 25 23 18 18 19 18 19 18 18 18 18 19 19 18 18 17 17 17 17 17 17 16 14 14 14 14 14 14 13 14 15 16 17 17 16 14 12 11 11 11 12 12 13 14 15 16 15 14 12 10 11 11 11 10 11 12 12 10 11
24 24 23 24 22 17 18 19 19 19 19 18 18 18 19 19 18 17 17 17 17 17 16 17 17 16 14 14 14 14 13 12 12 13 15 16 17 17 16 16 15 14 14 14 13 13 14 15 16 16 15 14 13 12 12 11 11 11 12 11 10 11
24 25 24 26 22 18 18 20 20 20 19 18 17 17 17 18 17 16 16 16 16 16 16 16 16 15 15 14 14 14 13 12 12 12 14 15 17 17 18 18 18 17 16 15 14 13 13 14 15 15 15 14 14 14 14 14 13 12 13 12 11 12
25 25 25 28 23 19 20 20 20 20 18 16 15 15 15 15 15 14 14 15 15 14 14 14 14 14 15 15 15 15 15 14 13 13 14 15 16 17 18 19 19 19 18 16 15 14 14 14 15 15 15 16 15 15 15 16 15 16 15 14 14 14
25 27 29 28 23 19 20 20 20 19 16 15 14 14 14 14 13 13 13 14 14 14 13 12 12 13 14 15 16 16 17 18 18 17 17 17 17 17 18 19 19 20 19 18 16 16 15 15 15 15 16 17 17 16 16 17 17 17 17 15 14 15
22 25 29 28 22 19 19 19 18 17 15 14 14 14 14 14 13 13 13 13 14 14 14 13 13 14 15 16 17 18 19 20 21 21 21 20 18 18 18 19 19 20 20 19 18 18 17 16 17 17 16 17 17 17 17 17 17 17 16 15 15 16
20 20 24 24 21 19 19 18 18 16 14 14 15 15 15 14 13 13 13 14 14 15 15 16 16 17 18 18 19 19 20 21 22 22 23 22 21 19 19 19 20 20 20 19 19 19 18 18 18 17 16 16 18 18 18 17 17 16 17 18 18 18
20 21 23 22 21 20 19 18 17 15 14 15 15 15 15 15 14 14 15 16 17 18 18 19 19 20 20 21 21 21 21 21 22 22 23 23 22 21 20 20 21 20 20 19 19 19 19 19 19 17 16 18 19 18 17 16 17 18 19 21 20 20
21 22 23 21 20 20 18 17 16 15 15 15 15 16 16 16 17 17 18 19 20 20 20 20 21 22 22 23 23 22 21 21 21 21 22 22 21 21 20 21 21 20 19 18 18 18 18 18 18 18 19 20 20 19 17 18 18 19 20 21 21 21
24 25 26 23 20 19 18 17 17 17 17 16 16 17 17 18 18 19 20 20 20 19 20 21 23 23 23 23 22 22 21 20 19 19 19 19 19 19 19 20 21 20 18 17 16 16 16 16 17 18 19 19 19 20 20 20 21 20 21 22 22 22
26 27 29 27 25 23 20 19 19 19 18 17 17 18 18 19 20 20 21 20 19 19 20 22 23 22 21 20 20 20 19 18 18 18 17 17 16 16 17 19 20 19 17 15 14 13 13 14 15 15 17 17 18 19 20 20 21 22 22 22 22 21
25 28 29 29 28 26 23 21 20 20 19 19 19 19 19 20 20 20 20 19 18 19 20 20 19 19 19 18 19 18 17 17 17 17 16 16 15 15 16 17 17 16 15 13 12 11 11 12 13 14 15 16 17 18 19 20 21 21 21 21 21 20
23 26 30 31 29 27 25 22 20 20 21 20 19 19 20 20 19 19 18 18 19 19 19 18 17 17 17 19 19 18 18 17 17 17 17 16 16 15 15 14 14 12 11 10 10 9 10 11 12 13 14 15 16 17 18 19 19 20 20 20 20 19
23 25 29 31 31 28 26 24 22 22 22 22 21 21 20 19 19 18 18 18 19 19 19 19 18 17 16 18 19 19 19 19 19 18 17 16 15 15 14 13 11 10 9 8 8 8 9 10 11 12 13 14 15 15 16 17 17 18 18 18 18 17

ECMWFFLT2_500_spd_033.txt.gz
Wind_Speed
18 18 18 19 20 21 21 21 21 20 19 19 19 18 18 18 19 20 19 19 19 20 21 22 28 33 32 30 28 22 16 14 14 14 14 14 13 12 12 12 12 12 14 14 15 16 17 17 17 17 17 16 16 14 12 11 11 11 12 11 10 9
18 19 19 20 20 20 21 21 21 21 20 19 18 17 17 19 21 21 20 19 17 17 18 21 29 31 26 25 22 17 13 13 13 14 14 13 13 12 12 12 12 13 15 15 16 16 17 17 17 17 18 17 16 15 13 13 12 13 13 12 11 11
18 19 19 19 19 19 21 22 22 21 21 19 17 17 18 21 22 20 19 17 15 14 16 21 26 24 20 18 16 13 13 13 13 13 13 14 14 13 13 13 13 14 16 16 16 17 17 17 17 17 18 18 17 16 14 14 14 14 14 13 12 12
18 19 19 19 19 20 20 21 21 21 19 17 16 16 18 21 20 17 15 13 13 14 15 17 18 17 16 13 11 11 12 12 12 12 13 14 14 15 14 13 14 15 16 16 16 17 17 17 17 18 18 18 18 16 14 15 15 16 15 14 13 13
18 19 19 19 19 18 18 19 19 17 15 13 12 13 16 18 16 14 11 9 10 12 10 10 11 13 12 9 8 9 11 11 12 13 13 14 14 14 14 13 14 14 15 15 16 17 17 17 17 18 18 18 19 17 14 15 16 17 17 16 15 15
19 20 20 19 18 17 18 17 14 12 12 11 9 10 13 14 14 12 9 8 8 7 6 6 7 7 7 6 7 9 11 12 14 14 14 13 11 10 11 11 12 13 13 14 16 17 18 17 17 18 18 19 19 18 15 15 17 18 18 17 17 16
20 20 20 20 18 18 18 14 10 10 11 9 8 9 10 10 10 9 7 7 7 6 5 5 5 5 5 7 9 10 11 12 13 13 13 12 11 9 8 8 9 10 11 13 15 17 17 17 17 17 18 19 19 18 17 16 17 19 18 17 18 18
19 19 20 20 19 18 14 11 9 9 9 7 7 8 9 8 7 7 7 8 8 7 6 6 6 6 7 9 9 9 10 10 10 11 12 12 11 10 9 8 9 8 9 12 15 17 17 16 16 17 17 17 18 19 18 17 17 17 17 18 19 19
18 19 20 20 19 16 12 11 9 9 8 8 8 10 10 8 5 5 6 8 9 8 6 6 6 6 7 7 6 6 7 7 8 9 10 10 9 9 9 10 11 10 10 11 13 16 16 16 16 15 15 15 17 17 17 18 17 17 18 19 20 20
18 18 19 19 17 13 12 11 9 10 10 10 10 8 7 5 4 5 6 6 5 5 4 4 4 4 5 5 4 5 5 5 6 7 8 7 7 7 8 9 10 10 10 11 11 13 15 17 16 14 13 14 15 15 16 16 17 18 19 20 20 19
15 16 16 15 13 11 12 12 11 11 10 8 7 6 5 7 8 7 4 1 0 1 2 3 3 4 5 5 5 5 5 4 4 5 5 5 5 6 6 7 8 8 9 11 11 12 14 16 15 13 13 15 15 16 16 15 16 17 17 17 18 18
15 15 15 13 13 12 12 12 11 10 8 6 7 8 9 9 7 5 2 1 1 1 2 3 3 5 5 5 4 5 4 4 3 3 4 4 4 5 5 5 5 5 8 10 10 11 13 15 14 12 12 14 14 15 16 15 14 14 13 13 14 15
15 15 15 14 12 12 12 13 12 9 7 7 8 8 7 6 4 3 2 1 2 3 2 3 5 5 5 4 3 4 3 3 2 2 3 4 4 5 5 4 4 4 6 8 9 10 11 12 13 12 11 12 13 13 14 13 12 12 10 10 11 12
14 14 13 11 11 11 12 13 9 6 6 7 7 6 5 4 4 4 3 3 4 4 3 3 5 5 4 3 3 2 2 2 2 1 2 3 4 5 5 4 4 4 5 7 8 8 9 10 11 11 11 10 12 12 10 9 10 10 9 8 8 9
12 13 11 9 10 11 11 9 5 4 6 7 5 4 4 5 6 6 5 5 5 4 2 4 5 5 4 4 4 3 2 2 2 1 2 3 4 4 4 4 4 4 4 5 5 6 7 9 10 10 10 10 10 10 9 8 8 7 7 6 6 7
11 12 10 9 9 10 9 7 4 4 6 6 6 6 8 8 7 7 6 5 5 4 3 5 6 5 4 4 4 3 2 1 1 1 2 2 3 3 3 3 4 4 4 3 4 5 5 7 8 9 9 9 8 7 7 8 7 6 6 5 5 7
11 10 9 8 9 9 8 6 4 3 5 8 9 9 9 8 8 8 7 6 5 4 4 5 5 5 5 5 4 4 3 1 1 1 2 2 3 3 3 3 4 4 5 4 3 1 3 4 5 8 9 9 8 6 5 8 8 7 5 5 6 7
11 9 8 7 7 8 6 5 4 4 5 6 7 8 8 9 10 8 6 5 4 3 3 3 4 5 6 6 5 4 3 2 1 2 2 2 3 3 3 4 4 4 5 4 1 2 2 4 5 7 7 6 7 7 6 8 9 7 5 5 6 7
12 10 9 6 5 6 6 5 5 5 5 5 7 9 10 11 9 6 4 3 3 3 4 5 5 5 6 6 6 5 4 3 2 2 2 2 2 2 2 4 4 4 4 4 2 2 3 5 5 6 5 4 6 8 7 7 9 8 5 4 6 7
13 12 11 8 6 8 8 7 7 8 8 9 10 12 11 10 7 5 5 5 4 4 4 5 5 5 6 6 6 6 5 3 2 2 2 2 2 2 2 3 4 4 5 4 3 3 4 5 5 5 5 5 6 7 6 6 7 7 4 2 5 6
15 13 12 10 9 9 9 9 9 9 10 11 12 12 12 10 8 7 7 7 7 6 6 6 6 6 6 6 6 6 4 3 2 2 2 2 2 2 2 3 4 4 5 5 5 4 4 5 6 5 5 6 6 6 6 8 7 7 5 3 5 5
16 15 12 11 11 10 10 10 11 12 12 13 15 15 13 11 10 9 9 9 8 7 7 7 7 6 6 6 6 5 4 3 3 3 2 2 2 2 3 3 4 5 5 5 5 5 4 6 7 6 6 7 8 6 7 9 8 7 6 5 6 6
14 14 13 12 12 11 11 12 13 14 14 15 17 16 13 12 11 10 10 10 9 8 7 7 7 6 6 5 5 5 4 3 3 2 2 2 3 3 3 3 4 4 5 5 5 5 5 6 8 7 7 9 9 8 8 8 7 6 5 4 5 5
14 14 14 13 12 12 13 14 14 15 15 16 18 15 13 14 13 12 12 11 10 8 7 7 7 6 6 5 4 4 4 3 2 2 2 2 2 3 3 4 4 4 5 6 6 6 5 6 8 8 8 8 9 9 8 8 8 7 5 4 4 4
14 14 14 12 11 13 15 15 14 14 14 15 16 16 16 16 15 14 13 12 11 9 7 6 6 6 5 5 4 3 3 3 3 3 3 2 3 3 3 4 5 5 6 6 7 7 7 7 8 9 9 9 9 9 9 10 10 9 7 6 6 6
14 14 15 13 12 13 13 12 12 13 14 14 16 19 19 17 16 14 13 12 11 9 7 5 5 5 4 4 4 3 3 3 4 5 5 5 6 5 5 5 5 6 7 8 8 8 8 8 9 9 9 10 10 10 10 10 10 10 10 9 8 8
14 14 14 13 13 13 11 9 10 12 13 15 17 19 19 17 15 13 12 11 9 8 6 5 4 3 3 3 4 4 4 4 4 5 6 7 8 9 9 8 7 8 9 9 9 9 9 9 9 9 10 10 10 10 11 10 10 10 11 11 10 10
13 11 10 11 12 12 10 10 12 12 13 13 13 15 16 15 13 12 10 9 8 7 6 5 4 3 3 4 5 5 6 6 6 6 7 8 9 10 11 11 10 11 11 10 10 11 10 10 10 10 10 11 11 11 11 10 10 11 12 12 12 12
11 10 9 8 8 9 10 12 13 13 13 12 12 14 15 14 11 10 9 9 8 7 5 3 3 4 5 5 6 6 7 7 7 8 9 10 10 11 11 12 12 12 13 12 12 12 11 11 11 11 11 12 12 11 11 11 11 12 12 12 12 12
10 8 7 6 4 4 6 8 11 12 11 9 10 12 13 11 9 8 8 9 8 7 5 3 4 5 5 6 7 8 9 9 8 8 9 10 11 12 13 12 12 12 13 14 14 13 13 12 12 12 12 12 12 12 11 11 12 12 12 11 11 11
8 7 7 5 3 2 5 6 6 7 8 7 8 9 10 9 8 7 8 8 8 7 5 4 5 5 5 6 7 7 8 8 8 7 8 8 9 11 12 12 12 12 12 13 14 14 14 13 12 12 12 12 12 11 11 11 12 13 12 11 11 11
8 8 7 6 4 5 7 8 5 6 8 6 6 6 8 8 7 6 6 7 8 7 6 6 5 4 4 5 6 6 6 6 6 6 6 5 6 7 8 9 10 10 11 11 13 14 14 14 13 13 13 12 12 12 12 13 13 13 13 11 10 10
7 6 6 5 6 7 7 7 6 7 9 9 8 8 9 9 8 7 6 7 8 8 8 8 6 4 4 4 5 6 6 6 5 5 5 5 4 4 5 6 7 8 8 10 11 12 14 14 14 14 14 14 14 14 13 13 13 13 11 9 9 10
5 4 5 5 4 5 5 5 6 7 9 11 13 13 12 11 10 9 7 7 8 9 9 8 6 5 4 5 5 6 6 5 5 6 6 5 5 4 4 5 5 5 6 7 9 11 13 14 15 16 16 16 16 15 14 14 13 13 11 9 10 11
6 5 5 4 3 3 4 4 5 6 9 11 14 14 13 12 11 10 8 7 8 9 9 9 8 6 5 5 5 6 5 5 5 6 6 6 5 5 5 6 6 6 6 6 8 10 11 13 15 16 17 17 17 16 16 15 14 13 10 10 11 11
10 8 7 4 4 4 4 4 5 6 8 11 12 13 12 11 10 10 9 8 8 9 10 10 10 8 6 6 6 6 6 6 5 5 6 6 5 5 6 6 7 7 7 7 8 9 10 12 14 15 15 15 15 15 14 13 12 11 10 9 9 8
8 8 7 5 4 4 5 6 6 6 7 9 11 13 13 11 10 10 10 10 10 10 11 12 12 10 8 7 7 7 6 6 5 5 6 5 6 6 6 7 7 8 8 8 8 9 10 11 12 12 12 12 12 11 11 10 10 9 9 8 8 7

ECMWFFLT2_500_spd_036.txt.gz
Wind_Speed
21 21 21 21 21 21 20 20 20 19 19 19 19 19 19 19 20 20 19 19 19 17 15 14 15 17 19 20 22 25 28 29 27 22 17 16 16 16 16 15 15 14 15 17 18 18 17 15 15 15 13 12 13 15 14 14 15 14 12 10 10 10
20 20 20 20 20 19 19 18 18 18 18 19 19 19 19 19 19 19 20 21 20 16 14 14 15 15 16 17 19 21 24 25 21 16 14 15 16 16 16 15 15 15 17 18 19 19 18 16 15 15 13 12 14 15 16 16 17 16 13 11 12 12
20 20 20 20 19 17 17 17 18 19 18 18 18 19 19 19 19 20 21 20 18 15 13 13 13 14 15 15 16 17 18 17 15 13 13 13 14 15 15 15 15 16 18 19 20 20 19 17 16 16 13 12 13 15 16 17 18 17 14 13 13 13
22 21 21 19 18 17 17 18 19 18 16 15 16 17 17 17 18 19 20 18 15 13 13 13 12 13 13 13 14 12 11 11 12 12 12 12 13 14 15 16 16 17 19 20 21 21 20 18 17 16 13 11 12 15 16 17 18 17 15 15 15 14
21 21 20 18 18 18 19 18 17 16 14 14 14 14 14 13 14 16 16 15 14 12 11 11 10 9 10 11 12 10 9 9 11 11 11 12 13 13 15 16 17 18 19 20 21 22 21 19 18 17 13 11 12 14 15 17 19 19 18 17 16 16
20 19 18 18 19 19 18 16 16 15 13 11 11 11 10 10 11 12 13 13 13 11 9 7 7 7 8 9 9 8 8 9 11 12 12 13 14 14 14 15 17 19 20 20 21 22 21 20 19 17 14 12 13 14 15 17 19 20 19 18 18 18
18 17 17 17 18 18 17 16 15 15 12 9 9 9 8 8 9 9 10 11 11 9 7 6 6 6 7 8 8 8 10 11 12 12 12 14 14 14 14 15 16 18 19 20 20 20 20 19 18 16 15 13 12 13 15 17 19 20 19 19 19 20
19 17 18 18 18 19 17 15 14 12 10 8 6 6 7 7 8 8 9 10 10 8 8 7 7 7 7 8 8 9 11 11 11 11 12 13 14 15 15 15 16 17 18 18 18 19 18 17 16 16 16 15 14 15 17 18 19 20 20 21 21 21
19 18 20 20 20 19 16 15 13 10 8 6 5 6 7 8 10 10 9 8 8 8 8 8 9 9 9 9 9 9 9 9 9 10 11 12 13 15 15 16 16 17 17 16 16 16 17 16 15 15 16 17 17 18 18 19 20 22 22 21 21 21
18 18 20 21 20 18 15 14 11 9 7 6 7 8 8 9 9 8 6 6 7 6 6 7 9 9 9 9 9 8 8 8 9 9 10 11 12 13 14 15 15 15 16 16 15 15 15 15 15 16 16 17 18 17 17 19 20 21 22 21 21 21
17 18 20 21 19 16 13 11 9 7 7 6 6 6 6 6 6 6 7 6 6 5 6 7 8 8 8 8 8 8 7 8 9 9 9 10 11 12 13 13 13 13 13 15 15 14 13 14 15 16 17 17 16 15 15 17 19 18 20 21 20 20
17 18 20 20 17 15 12 9 8 7 7 6 4 4 5 5 5 6 6 5 6 6 7 7 8 8 8 7 7 7 7 8 9 9 9 10 11 11 11 11 10 10 11 12 13 12 12 13 15 16 17 16 15 15 14 14 16 15 17 19 18 17
18 19 19 17 15 13 11 9 8 7 6 5 4 4 5 5 4 4 5 6 5 6 7 7 7 7 7 6 6 6 7 8 8 8 8 9 9 9 9 9 8 8 9 10 10 10 11 12 13 15 17 15 13 14 13 12 13 13 13 15 15 15
17 18 17 14 12 10 9 8 7 6 5 4 3 3 3 3 3 5 7 6 5 6 6 6 6 6 6 5 5 5 6 7 7 7 7 7 8 8 8 7 7 8 8 8 8 9 11 11 12 13 14 13 11 12 12 11 11 12 12 13 13 13
16 16 14 11 9 8 7 6 5 4 4 4 4 4 5 5 4 5 6 5 5 6 5 5 5 5 5 5 4 4 4 5 5 5 6 6 7 7 7 6 7 8 8 7 6 8 10 11 12 12 12 12 12 12 12 11 10 10 12 12 11 11
14 13 10 7 6 6 6 4 3 4 5 6 6 6 7 5 4 3 3 4 5 5 5 5 5 5 5 5 5 4 4 4 4 4 5 5 5 5 5 5 6 7 8 6 5 6 8 10 11 12 11 12 12 11 11 10 8 8 10 11 10 10
13 12 8 5 4 5 4 4 3 4 6 7 6 6 5 3 2 2 3 4 4 5 5 5 5 5 5 5 5 5 5 5 5 5 5 5 4 4 4 4 4 6 8 7 5 4 5 7 8 10 11 11 10 9 9 9 8 9 11 11 11 11
12 11 7 4 3 4 4 4 3 3 4 4 5 4 2 0 1 2 3 3 4 5 5 5 5 5 5 5 5 5 5 5 5 5 5 6 5 5 4 3 4 5 7 7 4 2 4 3 4 7 9 9 9 9 9 7 7 10 12 10 10 11
12 12 9 6 5 4 5 5 3 3 4 4 4 2 1 2 2 2 3 3 4 4 4 5 4 4 5 5 5 5 5 5 5 5 5 6 5 5 4 3 4 5 6 5 3 3 4 3 3 5 7 7 8 10 9 6 5 8 9 7 8 10
15 14 13 10 8 7 6 5 4 4 5 5 4 3 2 3 3 3 3 3 3 3 4 5 4 5 4 4 5 5 5 5 5 5 6 6 6 6 5 3 4 5 6 5 3 3 4 4 3 3 5 6 7 8 7 5 4 5 6 5 6 7
15 15 16 15 12 10 8 7 7 6 6 6 6 5 4 5 4 4 3 3 3 4 5 6 6 6 6 6 6 6 5 5 5 6 6 7 7 7 6 5 5 5 6 5 3 3 2 3 3 3 4 5 5 5 5 5 5 5 5 5 5 5
12 12 15 18 16 13 11 10 9 8 8 8 7 7 7 7 6 4 4 4 4 5 6 7 7 7 7 7 7 7 6 6 6 6 6 7 8 8 7 6 6 6 6 5 4 3 1 1 3 3 4 4 5 4 4 5 5 5 5 5 5 6
11 11 13 18 19 14 12 11 10 9 9 9 8 8 7 7 7 5 5 5 6 6 7 7 7 7 7 7 7 7 6 6 6 6 7 8 8 8 7 7 7 7 6 5 5 4 2 1 3 3 3 4 4 5 5 5 5 4 4 5 5 6
14 15 15 17 18 15 12 11 10 9 8 9 9 8 9 8 7 6 7 8 7 7 6 7 7 8 7 7 7 7 7 7 7 7 7 8 8 8 7 6 6 6 6 6 6 5 2 2 4 4 3 4 5 5 6 6 5 4 4 5 6 5
13 14 14 15 16 15 12 10 9 8 8 9 8 9 9 8 6 7 9 10 9 7 7 7 7 7 7 7 6 6 7 7 8 8 8 8 8 8 7 5 5 5 5 6 6 5 4 3 4 5 5 5 6 6 6 6 6 6 6 7 7 7
12 11 12 15 16 15 12 11 10 9 10 10 9 9 8 8 8 9 10 11 11 9 7 7 7 6 6 5 5 5 6 6 7 7 8 9 9 9 9 7 5 4 5 5 5 5 5 5 5 6 6 6 6 7 7 7 8 9 9 10 10 9
14 12 12 13 14 15 14 13 11 10 10 10 9 9 9 10 10 9 11 13 12 10 9 8 7 6 5 5 5 5 5 6 7 7 8 9 10 11 10 10 9 7 6 6 5 5 5 6 6 6 7 6 6 7 7 8 8 9 10 10 10 9
14 12 11 11 12 14 15 14 12 10 9 8 8 8 8 10 9 7 10 13 13 11 10 8 8 7 6 5 5 6 7 7 8 9 10 10 10 10 10 10 11 10 9 8 8 7 6 7 7 7 7 7 7 8 8 9 9 9 9 10 10 10
13 12 12 11 10 11 12 12 11 10 9 8 7 7 8 8 7 7 11 13 12 11 10 8 8 7 6 6 7 8 8 9 10 11 12 12 11 11 10 10 11 11 11 11 11 10 9 9 9 9 9 8 8 8 9 10 11 10 10 10 10 10
12 14 13 10 9 10 10 11 11 11 10 8 8 8 8 8 8 9 11 12 12 11 10 9 9 9 8 8 8 9 10 11 13 13 13 13 12 12 12 11 11 11 11 12 12 12 12 12 12 12 11 10 9 9 11 12 12 12 11 11 11 10
10 13 13 11 10 10 9 8 9 11 11 10 8 8 8 10 11 11 12 12 11 11 10 10 11 11 10 9 9 9 9 10 11 12 12 12 12 13 13 12 12 12 12 12 13 13 13 13 13 14 13 13 11 11 12 14 14 13 12 12 12 11
8 9 10 11 11 10 7 5 5 8 12 12 9 8 9 11 12 12 13 13 12 11 11 12 12 12 11 10 9 9 8 8 8 9 9 10 10 11 11 11 11 11 11 12 12 13 13 13 14 14 15 14 13 13 14 15 14 14 13 13 13 13
6 8 9 11 12 9 6 5 5 8 12 13 10 9 10 11 12 13 14 14 13 12 12 13 13 12 12 11 9 8 7 7 6 6 7 8 9 9 10 10 10 9 10 11 11 12 13 13 13 14 15 15 14 14 15 15 14 14 14 15 15 14
5 7 9 11 10 8 6 6 8 9 12 12 11 11 11 11 12 14 15 14 14 13 13 13 13 13 13 12 10 8 7 7 7 6 6 8 9 10 10 10 9 8 8 9 10 11 12 12 13 14 14 15 15 15 15 16 15 15 15 15 15 15
6 7 9 9 7 6 6 7 8 10 11 12 12 14 14 12 13 15 16 16 14 14 14 14 13 14 13 12 10 9 8 8 7 6 7 8 10 10 10 10 9 9 8 9 9 10 11 11 12 13 14 14 15 14 15 16 15 15 16 16 16 16
5 7 8 7 6 7 7 7 8 8 9 10 11 13 13 12 12 15 17 17 16 15 15 14 13 13 13 12 10 9 9 9 8 7 7 8 9 9 9 9 9 9 9 10 10 11 11 11 12 12 13 13 14 14 15 15 14 15 17 16 16 16
5 8 9 8 8 8 9 8 8 8 7 7 8 9 10 11 12 15 16 17 16 16 15 14 13 13 12 11 10 9 10 9 9 8 7 7 8 8 8 8 8 8 9 10 11 11 11 12 12 12 13 13 14 15 16 16 16 17 17 17 17 17

ECMWFFLT2_500_spd_042.txt.gz
Wind_Speed
24 24 24 24 23 23 22 21 21 20 19 18 18 18 18 18 18 19 20 21 21 19 18 18 17 17 17 17 17 17 17 17 17 19 20 21 22 22 18 16 18 20 16 11 11 12 12 13 14 16 16 15 15 15 14 13 13 12 11 10 11 10
24 24 24 23 22 22 22 22 21 20 18 18 18 18 17 17 18 19 20 21 21 20 20 20 20 19 19 19 19 19 19 19 19 20 20 20 20 19 18 19 19 16 14 12 11 12 12 13 14 15 16 16 16 16 15 14 13 13 13 12 13 13
24 24 23 22 22 22 23 23 22 20 20 20 19 18 17 17 17 18 19 20 21 22 21 21 21 21 20 20 19 19 19 19 19 19 17 18 20 21 20 20 18 15 14 13 12 12 12 13 14 15 16 17 17 17 15 15 15 15 14 14 14 15
23 23 22 22 22 22 23 22 22 21 21 21 19 18 17 17 17 18 19 20 21 22 21 21 21 21 19 18 17 18 18 19 19 18 17 19 22 22 21 19 17 15 15 14 13 12 12 13 14 15 17 18 18 18 17 17 17 17 16 15 15 16
23 22 21 22 22 22 22 22 21 21 21 21 20 18 17 17 17 18 19 19 20 20 20 19 19 17 16 15 15 16 17 18 19 18 19 20 20 20 20 18 16 16 16 14 13 13 13 13 14 16 17 18 19 19 19 18 19 18 18 17 17 18
22 21 21 22 22 23 22 22 21 21 21 20 18 16 16 16 17 17 18 18 18 18 17 16 16 15 13 14 14 15 15 16 16 16 18 18 17 17 17 16 17 17 16 15 14 13 13 13 14 17 18 19 19 20 20 20 20 19 19 18 18 19
20 20 21 22 22 22 22 22 22 22 21 20 17 16 15 16 16 16 16 16 15 15 15 15 14 13 13 12 13 13 13 13 12 12 13 14 13 14 14 16 17 17 17 16 15 14 13 13 14 17 19 19 20 20 21 21 20 20 20 19 19 20
19 19 20 20 21 20 21 21 22 22 21 20 18 15 14 14 14 14 14 14 14 14 14 13 13 12 12 12 12 11 10 9 8 9 10 11 12 13 14 16 17 17 17 16 16 15 14 13 14 16 18 19 20 21 21 20 20 20 20 21 20 20
18 18 18 19 18 18 19 20 20 21 20 18 15 13 13 12 12 13 13 14 14 14 14 13 12 12 12 13 13 12 10 9 8 9 10 11 12 13 14 15 17 17 16 16 16 15 15 15 15 16 17 18 20 21 21 20 20 21 21 21 21 21
18 18 17 17 16 16 16 17 18 18 16 14 12 11 11 11 12 13 14 15 15 15 14 12 11 12 13 14 14 13 11 10 10 10 10 10 10 11 13 14 15 15 15 15 14 14 15 15 15 15 16 17 18 19 20 20 20 21 21 22 21 21
17 17 16 17 16 15 15 15 15 14 13 12 11 11 11 12 14 15 16 16 16 14 12 11 11 12 13 13 12 11 10 9 9 9 9 9 9 9 10 12 12 13 13 13 12 12 13 14 14 15 15 16 17 18 19 19 20 20 21 22 21 21
16 15 15 15 15 14 13 13 13 13 13 12 12 11 13 14 15 16 16 15 13 12 11 11 11 10 10 9 9 8 8 8 8 8 8 7 7 8 9 10 10 11 11 11 10 10 11 12 13 14 15 16 17 17 17 17 17 19 21 21 21 21
14 13 14 15 14 12 12 12 13 13 13 13 13 13 15 16 15 15 14 12 11 11 11 10 9 8 8 8 8 8 7 7 7 7 7 6 7 8 9 8 9 10 10 10 9 9 10 11 12 13 14 15 16 16 16 16 16 18 19 19 19 20
14 14 14 14 13 11 11 12 13 13 13 13 14 15 16 15 14 13 12 12 12 11 9 8 8 8 9 8 8 7 6 6 6 6 6 6 6 7 8 8 8 8 8 8 9 9 9 10 11 12 13 13 14 15 15 15 16 17 17 17 17 18
16 15 15 14 12 11 11 12 13 13 14 15 15 15 15 14 13 12 12 12 11 10 9 8 9 9 9 9 8 7 6 6 5 5 5 5 6 7 7 7 6 6 6 7 8 9 9 9 10 11 12 13 13 14 15 15 15 15 15 16 15 15
17 16 15 12 10 10 11 12 13 14 15 16 15 15 14 13 13 12 12 11 10 10 9 9 10 10 10 9 9 8 7 6 5 5 5 5 5 6 6 5 5 5 5 7 8 9 8 8 10 11 12 12 12 14 14 13 13 13 14 14 13 13
18 16 14 10 9 10 11 13 14 15 16 16 14 14 13 13 12 12 11 11 11 11 10 10 11 11 10 9 9 8 7 7 6 6 5 5 5 6 5 4 5 5 5 6 7 8 9 9 9 9 9 10 10 12 12 11 11 12 13 12 11 12
18 16 13 11 10 11 13 14 15 16 15 15 14 13 13 13 13 12 12 11 11 11 11 11 11 11 10 9 9 8 7 8 8 7 6 6 6 6 6 5 5 6 5 5 6 7 8 8 7 7 8 7 8 9 9 10 11 12 12 11 10 11
19 18 15 12 13 15 16 16 16 16 16 15 15 14 14 14 14 13 12 12 11 11 11 11 11 10 9 9 9 8 8 9 10 8 6 7 7 7 6 6 6 6 5 5 6 6 6 7 8 8 8 7 7 8 9 10 10 10 10 9 10 11
19 20 18 15 16 17 17 17 17 17 17 16 15 15 15 15 14 14 13 12 12 12 11 10 10 9 9 9 9 9 10 11 11 9 8 8 7 7 7 7 7 6 6 6 6 6 6 6 8 8 7 6 5 7 9 9 8 8 8 8 9 11
14 17 19 19 19 19 18 18 17 17 17 16 16 16 16 15 14 14 13 13 12 12 11 10 10 10 10 10 10 10 11 11 11 10 10 9 8 8 8 8 8 7 6 7 7 7 6 6 6 6 5 4 4 6 8 8 7 8 7 7 9 10
11 13 17 19 19 19 20 18 16 16 16 16 16 16 16 15 14 14 14 13 13 12 11 11 11 11 11 11 11 11 12 12 11 11 11 10 9 9 9 9 8 7 7 7 8 8 7 7 6 6 5 3 3 5 8 8 7 9 7 7 10 10
7 10 14 17 18 19 20 19 16 15 15 15 16 17 17 16 15 15 15 14 13 12 12 12 12 11 12 12 12 12 12 12 12 11 11 11 10 10 9 9 8 7 7 7 8 9 9 8 7 7 6 5 5 6 8 7 7 9 8 8 10 10
3 8 12 15 16 16 18 19 18 17 17 17 17 19 19 17 16 16 16 16 15 14 13 13 12 12 12 12 12 12 13 13 12 12 11 10 10 10 9 9 8 7 7 8 9 10 9 9 9 8 7 7 6 7 7 7 8 9 9 9 10 11
4 7 11 13 13 13 16 20 21 20 20 20 21 21 20 19 18 18 18 17 16 15 15 14 13 12 12 12 12 12 13 13 12 11 11 10 10 10 9 8 7 7 7 8 9 9 9 10 10 9 8 8 7 7 7 8 9 10 11 10 10 11
6 7 10 14 16 15 16 20 23 23 24 25 24 23 21 20 20 20 20 19 18 17 16 15 14 13 12 12 12 12 12 12 12 11 11 11 10 10 10 9 7 6 6 6 8 9 9 10 10 9 9 9 8 8 9 10 10 11 12 12 12 12
9 10 11 15 19 19 18 21 24 26 28 27 25 23 22 22 22 22 22 21 19 18 18 17 16 14 13 12 11 11 11 11 11 11 11 11 11 10 10 10 9 8 7 7 7 8 8 9 9 9 9 9 8 9 10 10 11 12 13 13 13 12
10 13 14 15 18 20 20 21 24 27 29 27 24 23 23 24 24 24 23 21 20 19 19 18 17 15 14 13 12 11 11 10 10 10 11 11 11 10 10 11 10 10 9 9 9 9 9 8 8 8 8 8 9 10 10 11 11 13 14 14 14 12
10 12 14 16 17 19 19 20 23 27 27 26 25 25 25 26 25 23 22 21 21 20 19 18 17 16 15 13 13 12 12 11 11 11 12 12 11 11 11 11 11 11 11 11 11 11 11 11 10 9 9 9 10 10 11 11 12 13 14 14 14 13
6 6 8 13 18 19 19 20 23 25 27 27 27 28 27 26 24 23 22 22 22 21 19 19 18 16 15 13 13 13 12 12 12 13 14 14 13 12 12 12 12 11 11 11 12 12 12 13 13 13 12 11 11 12 12 13 13 14 14 15 15 14
8 6 6 11 17 20 20 21 23 25 28 29 29 29 28 26 24 24 23 23 23 21 20 20 19 16 15 14 14 13 13 13 14 14 15 15 15 14 14 13 13 13 13 13 13 13 14 14 15 15 14 14 14 14 14 14 14 15 15 16 16 16
11 10 9 11 17 20 21 22 24 26 28 29 29 28 27 26 25 25 25 24 22 20 19 20 18 16 15 15 14 14 14 14 14 14 15 15 15 15 15 15 14 13 13 13 13 13 14 15 16 15 15 15 15 15 16 15 15 15 16 17 17 17
12 12 12 13 17 19 20 22 25 27 28 28 28 28 27 27 27 25 24 23 21 19 19 20 18 17 17 16 16 15 14 14 14 14 14 14 14 14 14 14 13 13 12 12 11 11 12 13 14 14 14 14 15 15 15 15 15 16 17 18 18 18
12 12 13 15 16 18 20 23 25 25 27 27 28 28 28 28 27 25 23 21 20 21 21 21 20 18 18 17 16 15 14 14 14 14 13 14 14 13 12 12 11 11 11 10 9 8 9 10 10 11 12 12 13 13 13 14 15 15 16 17 18 18
12 12 14 15 17 18 21 23 24 24 25 26 27 28 28 28 26 24 23 21 21 23 23 22 20 19 18 18 16 15 14 14 14 14 13 14 13 12 11 11 11 11 11 10 9 9 8 8 8 9 10 11 11 11 12 12 13 13 14 15 17 17
13 14 15 16 18 20 22 23 23 24 24 24 26 27 28 28 25 24 22 20 22 24 23 21 19 19 18 18 17 15 15 15 15 14 14 14 13 12 11 11 11 12 12 11 11 10 10 10 9 10 11 11 11 10 10 10 11 11 13 14 15 15
14 16 18 20 21 22 24 25 24 24 23 23 24 26 28 27 24 21 19 19 22 23 22 20 19 19 18 18 18 17 16 16 16 16 15 14 13 12 11 11 11 12 12 12 12 12 12 12 12 12 13 13 12 12 11 11 11 11 12 13 13 14

ECMWFFLT2_500_spd_045.txt.gz
Wind_Speed
20 20 21 21 20 18 16 16 15 15 15 15 15 15 15 15 16 16 16 17 17 18 18 17 17 17 16 15 15 16 16 17 17 18 17 15 13 13 16 16 12 11 13 15 14 14 15 15 14 14 13 12 12 11 11 11 12 12 12 11 11 11
20 21 21 21 19 17 15 14 14 14 14 15 15 16 16 16 17 17 17 17 18 18 18 18 17 17 17 16 16 17 17 17 18 19 18 17 16 17 16 13 12 12 14 14 13 13 14 15 15 14 13 13 13 13 13 13 14 14 14 13 13 13
21 21 21 20 18 16 14 13 13 13 14 14 16 17 17 17 18 18 18 18 18 17 17 18 17 16 16 16 16 16 16 16 17 18 18 18 17 17 14 14 15 15 15 15 13 13 15 15 16 14 14 14 14 15 14 14 15 15 15 15 14 14
21 21 21 19 17 15 14 13 13 13 13 14 15 16 17 17 17 17 17 17 17 17 17 17 17 15 15 14 14 14 15 15 16 17 18 18 17 16 14 16 18 17 18 16 13 14 15 15 16 15 15 15 15 16 16 16 16 16 16 16 16 16
21 21 20 18 16 15 14 14 14 14 14 14 15 15 16 16 16 16 16 16 17 17 17 17 16 15 13 12 11 12 13 14 15 16 16 16 15 15 15 17 17 17 16 15 13 14 15 15 16 16 16 16 16 16 17 17 17 18 17 17 17 17
21 20 19 17 15 15 15 15 15 15 15 15 16 16 16 16 16 16 16 17 17 17 16 16 14 13 11 10 9 11 12 14 15 15 15 15 14 14 15 16 14 13 12 11 12 13 14 16 16 17 17 17 17 17 18 18 18 18 18 18 18 18
21 20 18 16 15 15 15 15 15 15 16 16 16 17 16 16 16 16 16 16 16 15 15 14 13 11 10 9 9 10 11 13 14 14 14 13 13 12 12 12 12 11 9 9 10 11 13 15 16 16 17 18 18 18 18 19 19 19 19 19 19 19
21 19 17 15 14 14 14 14 14 15 15 16 16 16 16 16 15 15 14 14 14 14 14 13 11 10 9 9 9 9 10 11 11 11 10 10 10 10 10 10 11 10 8 8 10 11 13 15 16 15 16 17 18 19 19 19 20 20 19 19 19 19
21 19 17 14 13 13 13 13 13 14 14 14 14 13 14 14 13 13 13 13 13 14 13 12 11 10 9 9 9 9 10 10 10 9 10 10 10 11 11 11 10 9 8 8 9 11 12 14 15 15 14 15 17 19 20 20 20 20 20 20 19 20
22 20 16 13 12 13 13 12 12 12 12 12 11 11 11 12 12 13 13 13 13 14 13 13 12 11 9 8 9 10 10 10 11 11 11 11 11 11 11 10 9 8 8 8 8 10 11 12 13 13 13 13 14 16 17 18 19 20 21 20 20 20
23 19 14 12 12 12 12 12 11 10 9 9 9 9 11 12 13 13 13 13 14 14 14 13 11 9 9 9 9 9 10 10 11 11 11 11 11 10 10 9 8 8 8 8 8 9 9 10 11 11 12 12 12 13 14 16 17 19 21 21 21 21
22 18 14 12 11 11 11 11 10 9 8 8 9 10 12 13 13 13 13 14 14 14 13 11 9 9 9 8 7 7 8 9 10 10 10 10 10 9 9 8 8 8 8 8 8 8 8 9 9 10 10 11 11 12 13 15 16 18 20 21 22 22
21 16 14 12 10 11 11 10 10 9 9 9 10 12 14 14 13 13 14 14 14 13 11 10 10 10 8 7 6 7 8 8 9 9 9 9 9 9 8 8 8 8 8 8 8 8 8 9 9 9 9 9 11 12 13 14 15 17 19 20 21 22
21 17 14 13 12 12 12 11 10 10 10 11 13 14 15 14 14 14 14 14 13 12 10 10 10 9 8 7 7 7 8 8 8 8 8 8 9 9 8 7 8 8 8 7 7 8 8 8 8 8 8 9 11 12 13 13 14 16 17 18 19 20
21 18 16 14 13 12 11 11 10 11 12 13 14 15 15 14 14 14 14 13 12 12 11 10 10 9 9 8 8 8 8 7 7 6 7 8 8 8 7 8 8 8 7 7 7 7 7 7 7 8 9 10 12 13 13 13 13 14 14 16 17 18
20 18 17 15 13 12 11 10 11 12 13 14 15 15 15 15 14 14 14 13 13 12 11 11 10 10 10 9 8 7 7 7 6 6 6 7 8 7 7 7 8 7 7 7 7 7 6 6 7 8 9 10 11 12 12 12 12 12 13 14 15 16
20 18 17 15 13 11 11 11 12 13 14 14 15 16 15 15 14 14 14 13 13 13 12 12 11 11 11 9 7 7 7 7 7 7 7 7 8 7 7 7 7 7 7 7 7 6 6 6 6 7 8 9 10 10 10 10 11 11 11 12 14 14
20 19 16 14 12 12 12 12 13 13 14 14 15 16 15 15 14 14 14 14 14 14 14 13 13 12 11 9 7 7 8 8 8 8 7 8 8 8 7 6 7 6 7 8 7 6 6 6 6 6 7 9 8 8 8 8 9 10 11 12 12 11
19 18 16 15 14 14 14 14 14 13 14 14 15 15 15 15 15 15 15 15 15 15 15 15 14 13 11 9 7 8 8 8 8 8 7 8 9 9 7 6 6 7 7 8 8 7 6 5 5 6 8 8 7 6 8 8 8 10 11 11 11 9
18 18 17 17 16 16 16 15 15 14 14 14 14 15 16 15 15 15 16 16 16 16 16 16 15 13 12 10 9 9 9 9 8 8 8 9 10 9 7 7 7 7 7 8 8 8 7 6 5 7 7 7 6 6 7 7 8 10 9 9 8 7
19 21 20 19 18 18 18 16 16 14 13 13 14 16 16 16 16 17 17 17 17 17 17 16 15 14 12 11 10 10 10 9 9 9 9 9 10 9 8 8 7 7 7 8 8 8 7 7 6 7 7 5 5 5 5 6 7 7 7 6 6 6
11 18 19 20 20 19 18 17 16 14 13 13 15 17 18 18 18 18 18 18 19 18 17 16 15 14 12 11 11 11 11 11 10 10 10 10 10 10 9 9 8 7 7 8 8 8 8 7 7 7 6 4 5 5 4 4 6 6 6 6 6 7
2 8 13 16 17 16 17 17 16 14 13 14 17 19 19 19 19 19 19 20 19 19 18 17 16 15 14 13 12 12 12 12 11 10 10 11 11 11 10 9 8 7 7 8 8 8 8 8 8 8 7 5 5 5 4 4 5 6 6 6 6 7
5 3 7 10 12 13 15 16 16 15 15 16 18 19 20 20 20 20 19 20 19 19 18 18 17 16 15 14 14 13 13 13 12 11 11 11 12 12 11 10 8 7 8 8 8 8 8 7 7 8 7 6 6 6 5 5 6 7 6 6 7 8
6 4 5 8 10 12 14 16 17 18 18 19 20 21 20 20 21 20 20 20 19 19 19 20 19 18 17 16 15 15 14 14 13 12 11 12 12 12 11 10 8 8 8 8 8 7 7 7 7 7 7 7 6 6 5 5 7 7 7 7 7 8
7 7 7 9 11 13 15 18 20 21 22 23 23 22 21 21 22 22 21 21 21 20 21 21 20 19 18 17 16 16 15 14 13 12 12 12 12 12 11 10 9 8 8 8 7 7 7 6 6 7 7 7 7 6 6 6 7 8 8 8 8 8
9 10 11 12 13 15 18 20 21 23 24 24 24 23 22 23 24 25 24 23 23 22 22 21 21 19 18 18 17 16 15 14 13 13 12 13 12 12 12 11 10 9 9 8 8 7 6 6 6 6 7 7 7 7 7 7 8 9 9 9 9 9
12 13 14 14 15 17 20 22 23 25 26 25 25 25 25 25 26 27 26 25 24 24 23 22 21 20 19 19 18 17 16 14 13 13 13 13 12 12 12 11 11 10 10 10 9 8 8 7 7 7 7 7 7 7 7 7 8 9 9 9 10 10
13 14 15 16 17 19 21 23 24 26 25 25 26 27 27 27 28 28 27 26 25 24 23 22 21 20 20 20 20 18 16 15 13 13 13 12 12 12 12 12 12 11 11 11 11 11 10 10 10 9 9 9 8 7 8 8 8 9 9 10 11 11
12 13 14 16 18 20 22 23 25 26 25 25 27 28 29 30 30 29 27 26 25 23 23 22 21 20 20 21 21 19 17 16 14 14 13 12 12 12 12 13 13 12 12 12 12 12 12 12 12 12 12 12 11 10 10 10 10 10 10 11 12 12
13 12 11 12 14 18 21 23 25 26 25 27 28 29 30 31 31 29 27 25 24 23 23 22 21 20 20 21 21 20 18 17 16 15 14 13 13 13 13 14 14 14 14 13 13 13 13 13 13 14 14 14 13 13 13 12 12 12 12 12 12 13
14 14 13 12 12 14 17 21 23 24 25 27 28 29 30 30 30 28 26 25 24 23 23 22 21 21 21 21 21 20 20 18 17 16 15 14 14 13 14 14 15 16 16 15 15 15 15 15 14 14 14 14 14 13 14 13 13 13 13 13 13 13
17 16 16 15 14 15 17 20 23 25 25 26 28 29 29 28 28 27 26 25 23 22 22 22 21 21 21 21 21 21 20 19 18 17 16 15 14 13 13 13 14 15 16 16 16 15 15 14 14 14 14 15 14 14 14 14 14 14 14 14 14 13
19 18 18 18 19 19 21 23 25 26 27 27 28 28 27 26 26 26 26 24 23 22 22 21 21 21 20 21 22 22 21 19 18 17 16 15 14 12 11 11 12 13 14 15 14 13 13 13 13 13 14 14 14 14 14 14 15 15 15 14 14 13
20 21 21 22 23 23 25 26 27 28 28 28 27 27 26 25 25 27 26 24 22 21 21 21 21 21 20 21 22 22 20 19 18 17 16 15 13 11 10 10 11 12 13 13 12 11 11 12 12 12 12 12 13 13 13 14 15 15 15 14 13 12
20 22 25 26 26 27 28 28 28 29 29 28 27 25 24 24 25 26 25 23 21 20 20 20 21 21 21 21 21 21 20 19 18 17 15 14 13 11 10 10 11 11 12 12 12 12 12 12 12 11 11 11 11 12 12 13 14 14 13 13 12 12
20 24 28 28 28 29 28 27 26 27 28 28 27 24 23 23 24 24 22 20 19 18 19 20 20 21 21 21 21 21 20 19 18 17 15 14 13 11 10 11 11 10 11 11 12 12 12 12 12 12 12 11 11 12 13 13 14 13 13 12 11 12

ECMWFFLT2_500_spd_048.txt.gz
Wind_Speed
22 20 20 21 21 20 19 17 16 15 15 14 14 13 12 12 12 13 14 15 15 14 15 16 16 15 15 14 13 13 12 11 11 10 10 10 11 12 13 16 18 20 19 17 15 14 16 14 13 13 12 12 11 10 10 11 11 10 10 9 9 10
23 22 22 22 21 20 19 18 17 16 16 16 14 13 13 13 13 14 15 15 15 14 14 14 15 14 13 13 13 14 13 12 12 12 12 12 12 13 14 16 19 20 19 18 16 15 16 14 13 14 13 13 12 12 11 12 12 12 12 11 11 11
23 23 23 23 21 20 19 18 18 18 18 16 15 14 14 13 12 13 16 15 14 13 13 12 14 14 14 14 13 14 13 12 11 11 12 12 13 13 15 17 19 20 19 19 18 16 14 14 14 14 14 14 13 12 12 12 13 13 13 13 13 13
24 24 24 23 22 21 20 19 19 19 18 16 15 14 13 13 12 13 16 15 12 11 12 13 14 15 15 14 13 13 12 11 11 11 11 12 14 15 16 17 17 18 18 17 19 17 15 15 15 15 15 16 14 13 13 13 13 13 14 14 14 14
24 24 24 23 22 21 20 20 19 19 18 16 15 13 12 13 14 14 15 14 12 11 12 14 13 14 14 14 12 11 10 10 10 10 11 13 14 15 14 14 15 17 17 16 18 19 18 17 17 16 16 16 16 15 14 14 14 14 14 15 16 16
25 25 24 23 22 21 20 19 19 19 17 15 15 13 11 14 15 14 15 14 13 12 12 14 13 14 14 13 11 9 9 9 9 10 11 13 13 12 11 12 14 15 16 16 17 18 18 17 17 17 17 17 17 16 16 16 16 16 15 15 16 17
26 25 24 23 22 20 20 19 18 18 17 15 14 13 12 15 16 15 15 14 13 13 13 13 13 13 12 11 9 8 9 9 9 9 10 11 11 11 11 12 14 14 14 15 15 16 16 16 16 17 17 17 16 16 17 17 18 18 17 16 16 17
25 25 24 23 22 20 19 18 18 17 16 16 15 13 12 14 16 15 14 14 14 14 13 12 11 11 10 10 10 10 9 8 8 8 8 9 8 10 11 11 12 12 11 12 13 14 14 14 15 15 16 16 15 16 17 18 19 19 19 18 17 17
26 26 25 23 22 20 19 18 17 16 16 15 14 14 13 14 15 14 14 15 16 14 12 11 10 9 10 10 11 10 9 9 8 9 9 9 8 8 9 10 10 10 10 10 11 12 13 14 14 15 15 15 16 16 17 18 19 20 20 19 18 18
27 25 24 23 22 20 19 18 17 16 15 15 14 14 13 14 13 13 15 16 15 13 11 10 9 9 10 11 11 10 10 10 10 10 10 10 10 10 9 9 9 9 9 9 10 11 12 13 13 14 15 16 16 17 18 18 19 20 20 19 19 19
26 25 24 23 22 21 19 18 17 16 15 14 13 13 13 13 13 14 14 15 14 12 11 10 10 10 10 10 10 10 10 11 11 11 11 11 10 10 9 8 8 8 8 7 8 10 11 12 12 13 14 15 16 16 18 18 18 18 18 18 19 20
26 26 25 24 23 21 20 18 17 16 15 14 14 14 14 14 14 14 14 14 13 12 11 10 10 10 10 11 11 10 10 10 10 10 10 10 10 10 9 8 7 7 7 7 8 9 10 11 11 12 13 14 14 15 16 17 16 17 17 17 18 19
29 28 26 26 24 21 19 17 16 15 15 15 15 14 14 14 14 14 14 14 13 12 12 11 10 10 11 11 10 9 9 8 9 9 9 10 10 10 9 8 7 6 6 6 7 8 9 11 11 12 12 12 12 13 14 15 15 16 16 16 16 17
31 31 29 26 23 20 18 16 15 14 14 15 15 15 14 14 14 14 14 14 14 13 12 11 10 10 11 10 10 9 9 8 8 9 10 10 10 9 8 7 7 6 5 6 7 8 9 10 11 11 11 11 11 11 12 13 14 15 15 15 16 16
32 30 30 27 22 20 18 15 14 13 14 15 15 16 15 15 15 15 15 14 14 13 11 11 11 11 11 11 10 9 9 9 9 10 10 10 9 8 7 6 6 5 5 6 7 8 9 10 11 11 11 11 11 11 12 12 13 14 14 14 14 14
31 29 29 27 23 20 18 15 13 13 13 15 16 17 16 16 16 15 15 15 14 13 12 12 11 11 12 11 10 10 9 9 9 10 10 9 8 7 6 5 4 4 5 6 7 8 9 10 10 10 10 10 10 10 11 12 12 13 13 12 12 12
28 30 29 27 24 21 18 15 14 14 14 16 17 17 17 16 16 16 16 15 15 14 13 12 12 12 13 12 11 10 10 10 10 10 9 9 8 7 5 4 4 4 5 7 8 9 9 9 9 9 9 9 9 10 10 11 11 12 12 11 10 10
25 28 29 26 25 21 18 17 15 15 15 17 17 17 17 16 16 16 16 16 15 14 13 12 13 13 13 12 11 11 11 11 10 10 9 9 8 7 5 5 4 5 6 7 8 8 8 8 8 9 9 9 9 10 10 9 9 9 9 8 8 8
21 24 26 24 23 21 19 18 16 16 16 17 17 17 16 16 16 16 16 16 15 14 14 13 14 14 13 12 11 11 11 11 10 9 9 10 9 8 7 6 6 6 7 8 8 8 8 8 8 9 9 9 9 11 10 7 7 7 7 8 8 8
20 21 23 22 21 21 20 18 17 17 16 17 17 17 17 17 16 17 16 16 16 15 15 15 15 15 14 13 12 12 11 10 10 9 9 10 10 9 8 7 7 8 8 9 9 9 8 7 8 8 8 8 9 10 9 5 6 6 6 7 6 5
19 19 20 21 22 22 21 20 19 18 17 17 17 17 17 16 16 16 16 16 16 16 16 16 15 15 15 14 13 12 12 11 11 10 10 10 10 9 8 8 9 9 9 10 10 10 8 7 8 8 7 7 8 9 8 5 4 4 4 4 3 3
12 17 20 22 23 23 21 20 19 19 18 18 18 17 16 16 16 17 17 17 17 17 17 16 16 16 16 15 14 13 13 12 12 11 11 11 11 10 10 10 10 10 11 11 11 11 9 7 7 7 7 7 7 8 7 5 3 3 3 2 2 3
1 8 16 21 23 23 21 20 20 19 19 19 18 17 16 16 17 17 17 17 17 18 18 17 17 17 16 15 14 14 14 13 13 12 12 12 12 12 11 11 11 11 11 12 11 11 10 8 7 6 6 7 7 7 7 5 3 3 3 3 3 3
4 3 5 12 16 18 19 20 20 20 19 19 18 17 17 17 17 18 18 18 18 18 18 18 17 17 16 15 15 15 15 15 14 14 13 13 13 13 13 12 12 11 11 12 12 11 10 8 7 6 6 6 7 6 6 6 6 5 4 3 3 2
12 7 3 4 7 10 15 18 19 20 20 20 20 19 18 18 18 19 19 19 19 19 18 18 18 17 17 16 16 15 16 16 15 15 15 14 14 13 14 13 12 12 12 12 12 11 10 8 7 6 6 6 7 6 5 6 7 6 4 3 3 4
14 11 6 5 5 9 15 19 20 21 22 22 21 21 20 20 20 20 20 20 20 19 18 18 18 17 17 16 16 16 16 16 16 16 16 15 15 14 14 14 12 12 12 11 12 11 10 8 7 6 6 7 7 6 5 6 7 7 6 5 5 5
12 10 9 9 9 14 18 20 22 23 24 24 22 22 21 21 22 21 21 21 20 20 19 18 18 17 17 17 17 17 17 17 17 17 17 16 16 15 15 14 12 12 11 11 11 10 9 9 7 7 7 7 7 6 6 6 6 7 7 6 6 6
11 11 12 14 15 19 22 23 24 25 25 24 23 23 23 24 24 23 21 21 21 20 18 17 17 17 17 17 18 18 18 18 18 18 18 17 17 16 15 14 13 12 12 11 11 11 10 10 9 8 7 8 7 7 7 7 7 7 7 7 7 7
13 14 17 18 20 22 24 25 26 26 26 25 24 25 26 25 25 23 22 21 21 21 19 18 18 18 18 18 18 19 19 19 19 19 19 18 17 16 14 14 13 12 12 12 12 12 12 11 11 10 9 9 9 8 8 8 8 8 7 8 8 8
14 16 18 19 21 21 22 24 25 26 25 24 25 27 28 27 26 25 23 22 22 22 21 20 20 19 19 19 19 19 19 19 19 19 19 18 17 15 14 13 13 12 12 12 12 12 12 13 13 12 12 12 11 11 10 9 9 9 9 9 9 9
15 17 18 19 20 21 23 25 26 27 26 26 28 29 30 29 28 26 25 24 23 22 21 21 21 21 20 19 19 19 19 19 19 19 19 17 16 15 15 14 13 13 12 12 13 13 13 14 14 14 14 13 14 14 13 12 11 10 10 12 11 11
18 19 19 20 22 23 25 27 28 29 28 29 30 31 31 30 27 27 26 24 23 22 21 22 22 21 20 19 19 19 19 19 19 20 19 17 16 16 15 15 14 14 14 14 14 14 15 15 15 15 14 14 16 15 14 14 14 12 11 12 12 12
21 22 23 24 25 26 28 30 30 30 31 31 32 32 31 28 27 27 26 24 23 22 22 22 22 21 20 19 19 19 19 19 20 20 19 17 17 16 16 15 15 14 14 14 14 15 16 16 15 15 14 14 16 16 14 13 15 14 13 12 13 14
22 23 25 26 27 28 29 31 30 30 31 31 32 32 30 27 26 26 25 24 23 23 23 22 21 20 20 19 19 19 20 21 20 20 19 18 17 16 16 15 15 14 14 13 14 14 15 15 15 15 14 13 15 16 15 15 15 15 14 13 14 15
25 26 28 29 30 30 29 29 28 26 28 29 29 30 28 27 26 25 25 24 23 23 23 22 21 20 20 19 19 20 21 21 20 20 19 18 17 17 15 14 14 13 12 12 12 12 13 14 13 13 12 12 13 14 14 14 14 14 14 13 14 15
27 29 31 31 31 29 26 26 26 24 25 27 27 28 27 26 25 25 24 22 22 22 22 21 21 19 19 19 19 20 20 20 20 19 19 18 18 17 16 14 13 12 11 11 11 11 11 11 12 11 11 11 11 12 12 12 12 12 12 13 13 15
28 29 29 28 29 28 27 28 26 24 24 26 26 27 27 25 24 24 23 21 21 22 21 20 20 19 19 18 18 18 18 18 19 19 19 18 18 17 16 15 13 11 10 11 11 10 10 11 11 11 11 11 11 11 11 11 11 11 11 11 12 13